Time,TemperatureF,DewpointF,PressureIn,WindDirection,WindDirectionDegrees,WindSpeedMPH,WindSpeedGustMPH,Humidity,HourlyPrecipIn,Conditions,Clouds,dailyrainin,SoftwareType,DateUTC
2013-04-05 00:00:00,34.4,29.2,30.10,NNW,335,1.0,6.0,81,0.00,,,0.00,Wunderground v.1.15,2013-04-05 04:00:00,
2013-04-05 00:01:00,34.4,29.2,30.10,NNW,331,1.0,2.0,81,0.00,,,0.00,Wunderground v.1.15,2013-04-05 04:01:00,
2013-04-05 00:03:00,34.5,29.6,30.10,WSW,240,2.0,2.0,82,0.00,,,0.00,Wunderground v.1.15,2013-04-05 04:03:00,
2013-04-05 00:05:00,34.5,29.6,30.09,WNW,294,4.0,4.0,82,0.00,,,0.00,Wunderground v.1.15,2013-04-05 04:05:00,
2013-04-05 00:06:00,34.6,29.7,30.09,NNW,336,1.0,4.0,82,0.00,,,0.00,Wunderground v.1.15,2013-04-05 04:06:00,
2013-04-05 00:08:00,34.7,29.8,30.09,SW,224,0.0,4.0,82,0.00,,,0.00,Wunderground v.1.15,2013-04-05 04:08:00,
2013-04-05 00:10:00,34.7,29.5,30.09,WSW,242,1.0,2.0,81,0.00,,,0.00,Wunderground v.1.15,2013-04-05 04:10:00,
2013-04-05 00:11:00,34.7,29.5,30.09,NNW,348,2.0,2.0,81,0.00,,,0.00,Wunderground v.1.15,2013-04-05 04:11:00,
2013-04-05 00:15:00,34.7,29.5,30.09,WSW,249,3.0,3.0,81,0.00,,,0.00,Wunderground v.1.15,2013-04-05 04:15:00,
2013-04-05 00:17:00,34.7,29.8,30.10,West,280,2.0,4.0,82,0.00,,,0.00,Wunderground v.1.15,2013-04-05 04:17:00,
2013-04-05 00:18:00,34.7,29.8,30.10,WNW,285,0.0,4.0,82,0.00,,,0.00,Wunderground v.1.15,2013-04-05 04:18:00,
2013-04-05 00:20:00,34.7,29.8,30.09,WNW,302,5.0,5.0,82,0.00,,,0.00,Wunderground v.1.15,2013-04-05 04:20:00,
2013-04-05 00:24:00,34.7,29.8,30.09,WSW,253,0.0,5.0,82,0.00,,,0.00,Wunderground v.1.15,2013-04-05 04:24:00,
2013-04-05 00:25:00,34.8,29.9,30.09,WSW,242,5.0,5.0,82,0.00,,,0.00,Wunderground v.1.15,2013-04-05 04:25:00,
2013-04-05 00:26:00,34.8,29.9,30.09,West,281,0.0,5.0,82,0.00,,,0.00,Wunderground v.1.15,2013-04-05 04:26:00,
2013-04-05 00:31:00,34.8,29.9,30.09,West,269,0.0,2.0,82,0.00,,,0.00,Wunderground v.1.15,2013-04-05 04:31:00,
2013-04-05 00:32:00,34.8,29.9,30.09,WNW,285,2.0,2.0,82,0.00,,,0.00,Wunderground v.1.15,2013-04-05 04:32:00,
2013-04-05 00:33:00,34.7,29.8,30.09,West,278,1.0,2.0,82,0.00,,,0.00,Wunderground v.1.15,2013-04-05 04:33:00,
2013-04-05 00:38:00,34.7,29.8,30.09,NW,308,2.0,2.0,82,0.00,,,0.00,Wunderground v.1.15,2013-04-05 04:38:00,
2013-04-05 00:39:00,34.7,29.8,30.09,South,172,0.0,2.0,82,0.00,,,0.00,Wunderground v.1.15,2013-04-05 04:39:00,
2013-04-05 00:40:00,34.7,29.8,30.09,West,263,0.0,2.0,82,0.00,,,0.00,Wunderground v.1.15,2013-04-05 04:40:00,
2013-04-05 00:42:00,34.7,29.8,30.09,West,276,1.0,2.0,82,0.00,,,0.00,Wunderground v.1.15,2013-04-05 04:42:00,
2013-04-05 00:44:00,34.8,29.9,30.08,West,267,0.0,2.0,82,0.00,,,0.00,Wunderground v.1.15,2013-04-05 04:44:00,
2013-04-05 00:48:00,34.8,29.9,30.08,WNW,287,1.0,2.0,82,0.00,,,0.00,Wunderground v.1.15,2013-04-05 04:48:00,
2013-04-05 00:49:00,34.8,29.9,30.08,WSW,243,0.0,2.0,82,0.00,,,0.00,Wunderground v.1.15,2013-04-05 04:49:00,
2013-04-05 00:51:00,34.8,29.9,30.08,WSW,255,0.0,1.0,82,0.00,,,0.00,Wunderground v.1.15,2013-04-05 04:51:00,
2013-04-05 00:52:00,34.8,29.9,30.08,NW,311,1.0,1.0,82,0.00,,,0.00,Wunderground v.1.15,2013-04-05 04:52:00,
2013-04-05 00:56:00,34.7,29.8,30.08,West,260,1.0,1.0,82,0.00,,,0.00,Wunderground v.1.15,2013-04-05 04:56:00,
2013-04-05 00:57:00,34.7,29.8,30.08,WNW,302,0.0,1.0,82,0.00,,,0.00,Wunderground v.1.15,2013-04-05 04:57:00,
2013-04-05 00:58:00,34.7,29.8,30.08,West,269,2.0,2.0,82,0.00,,,0.00,Wunderground v.1.15,2013-04-05 04:58:00,
2013-04-05 01:01:00,34.7,29.8,30.07,West,279,1.0,1.0,82,0.00,,,0.00,Wunderground v.1.15,2013-04-05 05:01:00,
2013-04-05 01:03:00,34.7,29.8,30.07,WSW,240,1.0,3.0,82,0.00,,,0.00,Wunderground v.1.15,2013-04-05 05:03:00,
2013-04-05 01:05:00,34.7,29.8,30.07,SW,228,1.0,3.0,82,0.00,,,0.00,Wunderground v.1.15,2013-04-05 05:05:00,
2013-04-05 01:06:00,34.7,29.8,30.07,WSW,237,0.0,3.0,82,0.00,,,0.00,Wunderground v.1.15,2013-04-05 05:06:00,
2013-04-05 01:10:00,34.6,29.7,30.07,WNW,288,0.0,1.0,82,0.00,,,0.00,Wunderground v.1.15,2013-04-05 05:10:00,
2013-04-05 01:11:00,34.5,29.6,30.07,NW,311,1.0,1.0,82,0.00,,,0.00,Wunderground v.1.15,2013-04-05 05:11:00,
2013-04-05 01:12:00,34.5,29.6,30.07,WSW,244,0.0,1.0,82,0.00,,,0.00,Wunderground v.1.15,2013-04-05 05:12:00,
2013-04-05 01:16:00,34.4,29.8,30.07,SW,233,0.0,1.0,83,0.00,,,0.00,Wunderground v.1.15,2013-04-05 05:16:00,
2013-04-05 01:18:00,34.4,29.8,30.07,WSW,250,0.0,1.0,83,0.00,,,0.00,Wunderground v.1.15,2013-04-05 05:18:00,
2013-04-05 01:21:00,34.3,29.7,30.07,WSW,248,0.0,0.0,83,0.00,,,0.00,Wunderground v.1.15,2013-04-05 05:21:00,
2013-04-05 01:23:00,34.3,29.7,30.07,West,276,1.0,1.0,83,0.00,,,0.00,Wunderground v.1.15,2013-04-05 05:23:00,
2013-04-05 01:24:00,34.3,29.7,30.07,West,269,0.0,1.0,83,0.00,,,0.00,Wunderground v.1.15,2013-04-05 05:24:00,
2013-04-05 01:29:00,34.3,29.7,30.07,SW,218,1.0,1.0,83,0.00,,,0.00,Wunderground v.1.15,2013-04-05 05:29:00,
2013-04-05 01:30:00,34.3,29.7,30.07,WSW,249,1.0,1.0,83,0.00,,,0.00,Wunderground v.1.15,2013-04-05 05:30:00,
2013-04-05 01:31:00,34.3,29.7,30.07,WSW,250,0.0,1.0,83,0.00,,,0.00,Wunderground v.1.15,2013-04-05 05:31:00,
2013-04-05 01:36:00,34.3,29.7,30.06,SW,221,0.0,2.0,83,0.00,,,0.00,Wunderground v.1.15,2013-04-05 05:36:00,
2013-04-05 01:37:00,34.3,29.4,30.06,SW,221,0.0,2.0,82,0.00,,,0.00,Wunderground v.1.15,2013-04-05 05:37:00,
2013-04-05 01:38:00,34.3,29.4,30.06,West,266,0.0,2.0,82,0.00,,,0.00,Wunderground v.1.15,2013-04-05 05:38:00,
2013-04-05 01:39:00,34.3,29.4,30.06,West,266,0.0,2.0,82,0.00,,,0.00,Wunderground v.1.15,2013-04-05 05:39:00,
2013-04-05 01:44:00,34.3,29.4,30.06,West,260,0.0,1.0,82,0.00,,,0.00,Wunderground v.1.15,2013-04-05 05:44:00,
2013-04-05 01:46:00,34.3,29.4,30.06,WSW,244,3.0,3.0,82,0.00,,,0.00,Wunderground v.1.15,2013-04-05 05:46:00,
2013-04-05 01:47:00,34.3,29.4,30.06,WSW,245,0.0,3.0,82,0.00,,,0.00,Wunderground v.1.15,2013-04-05 05:47:00,
2013-04-05 01:51:00,34.3,29.4,30.06,South,186,0.0,1.0,82,0.00,,,0.00,Wunderground v.1.15,2013-04-05 05:51:00,
2013-04-05 01:52:00,34.3,29.4,30.06,West,278,1.0,1.0,82,0.00,,,0.00,Wunderground v.1.15,2013-04-05 05:52:00,
2013-04-05 01:53:00,34.3,29.4,30.06,West,264,0.0,1.0,82,0.00,,,0.00,Wunderground v.1.15,2013-04-05 05:53:00,
2013-04-05 01:58:00,34.2,29.3,30.06,WSW,237,1.0,1.0,82,0.00,,,0.00,Wunderground v.1.15,2013-04-05 05:58:00,
2013-04-05 01:59:00,34.2,29.3,30.06,SSW,207,0.0,1.0,82,0.00,,,0.00,Wunderground v.1.15,2013-04-05 05:59:00,
2013-04-05 02:01:00,34.2,29.3,30.06,WSW,251,2.0,3.0,82,0.00,,,0.00,Wunderground v.1.15,2013-04-05 06:01:00,
2013-04-05 02:03:00,34.2,29.3,30.05,SW,227,0.0,3.0,82,0.00,,,0.00,Wunderground v.1.15,2013-04-05 06:03:00,
2013-04-05 02:04:00,34.2,29.3,30.05,WSW,254,1.0,3.0,82,0.00,,,0.00,Wunderground v.1.15,2013-04-05 06:04:00,
2013-04-05 02:06:00,34.2,29.3,30.05,SSW,207,0.0,3.0,82,0.00,,,0.00,Wunderground v.1.15,2013-04-05 06:06:00,
2013-04-05 02:08:00,34.3,29.4,30.05,WNW,283,0.0,3.0,82,0.00,,,0.00,Wunderground v.1.15,2013-04-05 06:08:00,
2013-04-05 02:10:00,34.3,29.4,30.05,WNW,294,1.0,1.0,82,0.00,,,0.00,Wunderground v.1.15,2013-04-05 06:10:00,
2013-04-05 02:12:00,34.3,29.4,30.05,WSW,245,0.0,3.0,82,0.00,,,0.00,Wunderground v.1.15,2013-04-05 06:12:00,
2013-04-05 02:13:00,34.4,29.5,30.05,WSW,250,0.0,3.0,82,0.00,,,0.00,Wunderground v.1.15,2013-04-05 06:13:00,
2013-04-05 02:15:00,34.4,29.5,30.04,South,191,0.0,3.0,82,0.00,,,0.00,Wunderground v.1.15,2013-04-05 06:15:00,
2013-04-05 02:17:00,34.4,29.5,30.04,WSW,253,0.0,3.0,82,0.00,,,0.00,Wunderground v.1.15,2013-04-05 06:17:00,
2013-04-05 02:19:00,34.5,29.6,30.04,WSW,242,0.0,3.0,82,0.00,,,0.00,Wunderground v.1.15,2013-04-05 06:19:00,
2013-04-05 02:20:00,34.5,29.6,30.04,South,181,1.0,1.0,82,0.00,,,0.00,Wunderground v.1.15,2013-04-05 06:20:00,
2013-04-05 02:23:00,34.5,29.6,30.04,NW,316,1.0,3.0,82,0.00,,,0.00,Wunderground v.1.15,2013-04-05 06:23:00,
2013-04-05 02:24:00,34.4,29.5,30.04,WSW,252,0.0,3.0,82,0.00,,,0.00,Wunderground v.1.15,2013-04-05 06:24:00,
2013-04-05 02:26:00,34.4,29.5,30.04,NW,307,0.0,3.0,82,0.00,,,0.00,Wunderground v.1.15,2013-04-05 06:26:00,
2013-04-05 02:28:00,34.4,29.5,30.05,West,279,0.0,3.0,82,0.00,,,0.00,Wunderground v.1.15,2013-04-05 06:28:00,
2013-04-05 02:29:00,34.4,29.5,30.04,West,259,0.0,3.0,82,0.00,,,0.00,Wunderground v.1.15,2013-04-05 06:29:00,
2013-04-05 02:30:00,34.4,29.5,30.04,West,259,0.0,3.0,82,0.00,,,0.00,Wunderground v.1.15,2013-04-05 06:30:00,
2013-04-05 02:32:00,34.3,29.4,30.05,West,269,0.0,1.0,82,0.00,,,0.00,Wunderground v.1.15,2013-04-05 06:32:00,
2013-04-05 02:34:00,34.2,29.3,30.05,WSW,250,1.0,1.0,82,0.00,,,0.00,Wunderground v.1.15,2013-04-05 06:34:00,
2013-04-05 02:35:00,34.3,29.4,30.05,SW,217,1.0,2.0,82,0.00,,,0.00,Wunderground v.1.15,2013-04-05 06:35:00,
2013-04-05 02:37:00,34.2,29.3,30.05,SW,214,0.0,2.0,82,0.00,,,0.00,Wunderground v.1.15,2013-04-05 06:37:00,
2013-04-05 02:39:00,34.3,29.4,30.04,ENE,63,0.0,2.0,82,0.00,,,0.00,Wunderground v.1.15,2013-04-05 06:39:00,
2013-04-05 02:40:00,34.3,29.4,30.04,NE,40,0.0,2.0,82,0.00,,,0.00,Wunderground v.1.15,2013-04-05 06:40:00,
2013-04-05 02:42:00,34.3,29.4,30.04,WSW,249,0.0,3.0,82,0.00,,,0.00,Wunderground v.1.15,2013-04-05 06:42:00,
2013-04-05 02:44:00,34.4,29.5,30.04,SW,219,0.0,3.0,82,0.00,,,0.00,Wunderground v.1.15,2013-04-05 06:44:00,
2013-04-05 02:45:00,34.4,29.5,30.04,SW,226,0.0,3.0,82,0.00,,,0.00,Wunderground v.1.15,2013-04-05 06:45:00,
2013-04-05 02:47:00,34.4,29.5,30.04,SW,219,1.0,3.0,82,0.00,,,0.00,Wunderground v.1.15,2013-04-05 06:47:00,
2013-04-05 02:49:00,34.5,29.6,30.04,SW,224,0.0,3.0,82,0.00,,,0.00,Wunderground v.1.15,2013-04-05 06:49:00,
2013-04-05 02:50:00,34.5,29.6,30.04,SW,224,0.0,1.0,82,0.00,,,0.00,Wunderground v.1.15,2013-04-05 06:50:00,
2013-04-05 02:52:00,34.5,29.3,30.04,SW,219,1.0,2.0,81,0.00,,,0.00,Wunderground v.1.15,2013-04-05 06:52:00,
2013-04-05 02:54:00,34.5,29.3,30.03,WSW,255,1.0,2.0,81,0.00,,,0.00,Wunderground v.1.15,2013-04-05 06:54:00,
2013-04-05 02:55:00,34.5,29.3,30.03,West,261,0.0,2.0,81,0.00,,,0.00,Wunderground v.1.15,2013-04-05 06:55:00,
2013-04-05 02:56:00,34.5,29.3,30.04,West,259,0.0,2.0,81,0.00,,,0.00,Wunderground v.1.15,2013-04-05 06:56:00,
2013-04-05 02:57:00,34.5,29.3,30.03,West,266,0.0,2.0,81,0.00,,,0.00,Wunderground v.1.15,2013-04-05 06:57:00,
2013-04-05 02:59:00,34.5,29.3,30.03,SW,215,1.0,3.0,81,0.00,,,0.00,Wunderground v.1.15,2013-04-05 06:59:00,
2013-04-05 03:01:00,34.5,29.3,30.03,WSW,257,0.0,1.0,81,0.00,,,0.00,Wunderground v.1.15,2013-04-05 07:01:00,
2013-04-05 03:02:00,34.5,29.3,30.03,WSW,256,0.0,1.0,81,0.00,,,0.00,Wunderground v.1.15,2013-04-05 07:02:00,
2013-04-05 03:03:00,34.5,29.3,30.03,WSW,253,1.0,1.0,81,0.00,,,0.00,Wunderground v.1.15,2013-04-05 07:03:00,
2013-04-05 03:05:00,34.5,29.3,30.03,SSW,210,1.0,1.0,81,0.00,,,0.00,Wunderground v.1.15,2013-04-05 07:05:00,
2013-04-05 03:07:00,34.5,29.3,30.02,WSW,243,2.0,2.0,81,0.00,,,0.00,Wunderground v.1.15,2013-04-05 07:07:00,
2013-04-05 03:08:00,34.5,29.3,30.02,SSW,197,0.0,3.0,81,0.00,,,0.00,Wunderground v.1.15,2013-04-05 07:08:00,
2013-04-05 03:10:00,34.5,29.3,30.02,West,269,0.0,1.0,81,0.00,,,0.00,Wunderground v.1.15,2013-04-05 07:10:00,
2013-04-05 03:12:00,34.5,29.3,30.02,West,269,0.0,1.0,81,0.00,,,0.00,Wunderground v.1.15,2013-04-05 07:12:00,
2013-04-05 03:13:00,34.5,29.3,30.02,West,269,0.0,1.0,81,0.00,,,0.00,Wunderground v.1.15,2013-04-05 07:13:00,
2013-04-05 03:15:00,34.5,29.3,30.02,West,262,0.0,1.0,81,0.00,,,0.00,Wunderground v.1.15,2013-04-05 07:15:00,
2013-04-05 03:17:00,34.4,29.2,30.02,NW,312,0.0,1.0,81,0.00,,,0.00,Wunderground v.1.15,2013-04-05 07:17:00,
2013-04-05 03:18:00,34.4,29.2,30.02,NW,311,0.0,1.0,81,0.00,,,0.00,Wunderground v.1.15,2013-04-05 07:18:00,
2013-04-05 03:20:00,34.3,29.1,30.02,West,263,0.0,0.0,81,0.00,,,0.00,Wunderground v.1.15,2013-04-05 07:20:00,
2013-04-05 03:22:00,34.3,29.1,30.02,West,263,0.0,0.0,81,0.00,,,0.00,Wunderground v.1.15,2013-04-05 07:22:00,
2013-04-05 03:23:00,34.3,29.1,30.02,West,262,0.0,0.0,81,0.00,,,0.00,Wunderground v.1.15,2013-04-05 07:23:00,
2013-04-05 03:24:00,34.3,29.1,30.02,West,262,0.0,0.0,81,0.00,,,0.00,Wunderground v.1.15,2013-04-05 07:24:00,
2013-04-05 03:25:00,34.2,29.0,30.02,WSW,247,0.0,0.0,81,0.00,,,0.00,Wunderground v.1.15,2013-04-05 07:25:00,
2013-04-05 03:27:00,34.2,29.0,30.02,WSW,250,1.0,1.0,81,0.00,,,0.00,Wunderground v.1.15,2013-04-05 07:27:00,
2013-04-05 03:29:00,34.2,29.0,30.01,SW,231,1.0,1.0,81,0.00,,,0.00,Wunderground v.1.15,2013-04-05 07:29:00,
2013-04-05 03:30:00,34.1,28.9,30.01,West,261,1.0,1.0,81,0.00,,,0.00,Wunderground v.1.15,2013-04-05 07:30:00,
2013-04-05 03:32:00,34.2,29.0,30.01,SW,231,0.0,1.0,81,0.00,,,0.00,Wunderground v.1.15,2013-04-05 07:32:00,
2013-04-05 03:35:00,34.2,29.0,30.01,SW,232,1.0,2.0,81,0.00,,,0.00,Wunderground v.1.15,2013-04-05 07:35:00,
2013-04-05 03:36:00,34.2,29.0,30.01,WSW,238,0.0,2.0,81,0.00,,,0.00,Wunderground v.1.15,2013-04-05 07:36:00,
2013-04-05 03:38:00,34.3,29.1,30.01,West,259,0.0,2.0,81,0.00,,,0.00,Wunderground v.1.15,2013-04-05 07:38:00,
2013-04-05 03:40:00,34.3,29.1,30.01,WSW,248,0.0,0.0,81,0.00,,,0.00,Wunderground v.1.15,2013-04-05 07:40:00,
2013-04-05 03:42:00,34.3,29.1,30.01,WSW,247,0.0,1.0,81,0.00,,,0.00,Wunderground v.1.15,2013-04-05 07:42:00,
2013-04-05 03:43:00,34.3,29.1,30.01,WSW,249,0.0,1.0,81,0.00,,,0.00,Wunderground v.1.15,2013-04-05 07:43:00,
2013-04-05 03:45:00,34.3,29.1,30.01,WSW,252,0.0,1.0,81,0.00,,,0.00,Wunderground v.1.15,2013-04-05 07:45:00,
2013-04-05 03:47:00,34.2,29.0,30.01,WSW,252,0.0,1.0,81,0.00,,,0.00,Wunderground v.1.15,2013-04-05 07:47:00,
2013-04-05 03:48:00,34.2,29.0,30.01,WSW,252,0.0,1.0,81,0.00,,,0.00,Wunderground v.1.15,2013-04-05 07:48:00,
2013-04-05 03:50:00,34.2,29.0,30.01,SW,229,1.0,2.0,81,0.00,,,0.00,Wunderground v.1.15,2013-04-05 07:50:00,
2013-04-05 03:52:00,34.2,29.0,30.01,WSW,243,1.0,2.0,81,0.00,,,0.00,Wunderground v.1.15,2013-04-05 07:52:00,
2013-04-05 03:53:00,34.2,29.0,30.01,WSW,250,1.0,2.0,81,0.00,,,0.00,Wunderground v.1.15,2013-04-05 07:53:00,
2013-04-05 03:56:00,34.3,29.1,30.01,SW,234,0.0,2.0,81,0.00,,,0.00,Wunderground v.1.15,2013-04-05 07:56:00,
2013-04-05 03:57:00,34.3,29.1,30.01,SSW,193,0.0,2.0,81,0.00,,,0.00,Wunderground v.1.15,2013-04-05 07:57:00,
2013-04-05 03:58:00,34.3,29.1,30.01,WSW,245,0.0,2.0,81,0.00,,,0.00,Wunderground v.1.15,2013-04-05 07:58:00,
2013-04-05 04:02:00,34.4,29.2,30.01,SW,236,0.0,1.0,81,0.00,,,0.00,Wunderground v.1.15,2013-04-05 08:02:00,
2013-04-05 04:04:00,34.4,29.2,30.01,WSW,250,1.0,2.0,81,0.00,,,0.00,Wunderground v.1.15,2013-04-05 08:04:00,
2013-04-05 04:07:00,34.4,28.9,30.01,WSW,243,1.0,2.0,80,0.00,,,0.00,Wunderground v.1.15,2013-04-05 08:07:00,
2013-04-05 04:08:00,34.5,29.0,30.01,SSW,198,1.0,2.0,80,0.00,,,0.00,Wunderground v.1.15,2013-04-05 08:08:00,
2013-04-05 04:09:00,34.5,29.0,30.01,West,270,1.0,2.0,80,0.00,,,0.00,Wunderground v.1.15,2013-04-05 08:09:00,
2013-04-05 04:12:00,34.5,29.0,30.01,WSW,257,0.0,1.0,80,0.00,,,0.00,Wunderground v.1.15,2013-04-05 08:12:00,
2013-04-05 04:13:00,34.5,29.0,30.01,WSW,257,0.0,1.0,80,0.00,,,0.00,Wunderground v.1.15,2013-04-05 08:13:00,
2013-04-05 04:14:00,34.5,29.0,30.01,West,263,0.0,1.0,80,0.00,,,0.00,Wunderground v.1.15,2013-04-05 08:14:00,
2013-04-05 04:17:00,34.4,28.9,30.01,West,263,0.0,1.0,80,0.00,,,0.00,Wunderground v.1.15,2013-04-05 08:17:00,
2013-04-05 04:18:00,34.4,28.9,30.01,West,260,0.0,1.0,80,0.00,,,0.00,Wunderground v.1.15,2013-04-05 08:18:00,
2013-04-05 04:19:00,34.4,28.9,30.01,SW,219,0.0,1.0,80,0.00,,,0.00,Wunderground v.1.15,2013-04-05 08:19:00,
2013-04-05 04:22:00,34.4,28.9,30.01,SW,227,0.0,1.0,80,0.00,,,0.00,Wunderground v.1.15,2013-04-05 08:22:00,
2013-04-05 04:23:00,34.4,28.9,30.01,West,260,0.0,1.0,80,0.00,,,0.00,Wunderground v.1.15,2013-04-05 08:23:00,
2013-04-05 04:24:00,34.4,28.9,30.01,West,260,0.0,1.0,80,0.00,,,0.00,Wunderground v.1.15,2013-04-05 08:24:00,
2013-04-05 04:27:00,34.4,28.9,30.01,West,274,1.0,3.0,80,0.00,,,0.00,Wunderground v.1.15,2013-04-05 08:27:00,
2013-04-05 04:28:00,34.3,28.8,30.01,West,259,1.0,3.0,80,0.00,,,0.00,Wunderground v.1.15,2013-04-05 08:28:00,
2013-04-05 04:29:00,34.4,28.9,30.01,WSW,239,0.0,3.0,80,0.00,,,0.00,Wunderground v.1.15,2013-04-05 08:29:00,
2013-04-05 04:33:00,34.4,28.9,30.00,West,259,0.0,3.0,80,0.00,,,0.00,Wunderground v.1.15,2013-04-05 08:33:00,
2013-04-05 04:34:00,34.4,28.9,30.01,WNW,286,0.0,3.0,80,0.00,,,0.00,Wunderground v.1.15,2013-04-05 08:34:00,
2013-04-05 04:38:00,34.4,28.9,30.00,West,267,0.0,3.0,80,0.00,,,0.00,Wunderground v.1.15,2013-04-05 08:38:00,
2013-04-05 04:39:00,34.4,28.9,30.00,WSW,246,1.0,3.0,80,0.00,,,0.00,Wunderground v.1.15,2013-04-05 08:39:00,
2013-04-05 04:42:00,34.4,28.9,30.01,WNW,296,0.0,1.0,80,0.00,,,0.00,Wunderground v.1.15,2013-04-05 08:42:00,
2013-04-05 04:43:00,34.4,28.9,30.00,WNW,296,0.0,1.0,80,0.00,,,0.00,Wunderground v.1.15,2013-04-05 08:43:00,
2013-04-05 04:44:00,34.3,28.8,30.00,West,266,0.0,1.0,80,0.00,,,0.00,Wunderground v.1.15,2013-04-05 08:44:00,
2013-04-05 04:45:00,34.3,28.8,30.00,West,266,0.0,1.0,80,0.00,,,0.00,Wunderground v.1.15,2013-04-05 08:45:00,
2013-04-05 04:48:00,34.3,28.8,30.00,WNW,290,0.0,1.0,80,0.00,,,0.00,Wunderground v.1.15,2013-04-05 08:48:00,
2013-04-05 04:50:00,34.3,28.8,30.00,WNW,297,2.0,2.0,80,0.00,,,0.00,Wunderground v.1.15,2013-04-05 08:50:00,
2013-04-05 04:53:00,34.2,28.7,30.00,WSW,250,0.0,3.0,80,0.00,,,0.00,Wunderground v.1.15,2013-04-05 08:53:00,
2013-04-05 04:55:00,34.3,28.8,30.00,WSW,255,0.0,3.0,80,0.00,,,0.00,Wunderground v.1.15,2013-04-05 08:55:00,
2013-04-05 04:58:00,34.3,28.8,29.99,West,267,0.0,3.0,80,0.00,,,0.00,Wunderground v.1.15,2013-04-05 08:58:00,
2013-04-05 04:59:00,34.3,28.8,29.99,West,267,0.0,3.0,80,0.00,,,0.00,Wunderground v.1.15,2013-04-05 08:59:00,
2013-04-05 05:00:00,34.3,28.8,29.99,West,266,0.0,0.0,80,0.00,,,0.00,Wunderground v.1.15,2013-04-05 09:00:00,
2013-04-05 05:04:00,34.4,28.9,29.99,WSW,255,1.0,4.0,80,0.00,,,0.00,Wunderground v.1.15,2013-04-05 09:04:00,
2013-04-05 05:05:00,34.4,28.9,29.99,West,266,1.0,5.0,80,0.00,,,0.00,Wunderground v.1.15,2013-04-05 09:05:00,
2013-04-05 05:10:00,34.6,29.1,29.98,WSW,255,0.0,7.0,80,0.00,,,0.00,Wunderground v.1.15,2013-04-05 09:10:00,
2013-04-05 05:11:00,34.7,29.2,29.98,WSW,255,0.0,1.0,80,0.00,,,0.00,Wunderground v.1.15,2013-04-05 09:11:00,
2013-04-05 05:15:00,34.7,29.2,29.98,West,266,1.0,6.0,80,0.00,,,0.00,Wunderground v.1.15,2013-04-05 09:15:00,
2013-04-05 05:16:00,34.7,29.2,29.98,West,270,0.0,6.0,80,0.00,,,0.00,Wunderground v.1.15,2013-04-05 09:16:00,
2013-04-05 05:20:00,34.8,29.3,29.98,WNW,294,4.0,5.0,80,0.00,,,0.00,Wunderground v.1.15,2013-04-05 09:20:00,
2013-04-05 05:21:00,34.8,29.3,29.98,NNW,337,0.0,5.0,80,0.00,,,0.00,Wunderground v.1.15,2013-04-05 09:21:00,
2013-04-05 05:25:00,34.7,29.2,29.98,WSW,239,0.0,5.0,80,0.00,,,0.00,Wunderground v.1.15,2013-04-05 09:25:00,
2013-04-05 05:27:00,34.7,29.2,29.98,NNW,338,1.0,5.0,80,0.00,,,0.00,Wunderground v.1.15,2013-04-05 09:27:00,
2013-04-05 05:30:00,34.7,29.5,29.97,West,264,0.0,1.0,81,0.00,,,0.00,Wunderground v.1.15,2013-04-05 09:30:00,
2013-04-05 05:31:00,34.7,29.5,29.97,West,267,0.0,1.0,81,0.00,,,0.00,Wunderground v.1.15,2013-04-05 09:31:00,
2013-04-05 05:32:00,34.7,29.5,29.97,WNW,294,0.0,1.0,81,0.00,,,0.00,Wunderground v.1.15,2013-04-05 09:32:00,
2013-04-05 05:35:00,34.7,29.5,29.97,NW,315,0.0,2.0,81,0.00,,,0.00,Wunderground v.1.15,2013-04-05 09:35:00,
2013-04-05 05:36:00,34.7,29.5,29.97,NW,314,2.0,4.0,81,0.00,,,0.00,Wunderground v.1.15,2013-04-05 09:36:00,
2013-04-05 05:37:00,34.7,29.5,29.98,NNW,345,1.0,4.0,81,0.00,,,0.00,Wunderground v.1.15,2013-04-05 09:37:00,
2013-04-05 05:41:00,34.8,29.6,29.98,NNW,345,2.0,2.0,81,0.00,,,0.00,Wunderground v.1.15,2013-04-05 09:41:00,
2013-04-05 05:42:00,34.8,29.6,29.97,West,278,0.0,3.0,81,0.00,,,0.00,Wunderground v.1.15,2013-04-05 09:42:00,
2013-04-05 05:46:00,34.8,29.6,29.97,NNW,348,1.0,3.0,81,0.00,,,0.00,Wunderground v.1.15,2013-04-05 09:46:00,
2013-04-05 05:47:00,34.8,29.6,29.97,NW,316,0.0,3.0,81,0.00,,,0.00,Wunderground v.1.15,2013-04-05 09:47:00,
2013-04-05 05:51:00,34.8,29.6,29.97,NW,304,1.0,1.0,81,0.00,,,0.00,Wunderground v.1.15,2013-04-05 09:51:00,
2013-04-05 05:52:00,34.8,29.6,29.96,NW,305,2.0,3.0,81,0.00,,,0.00,Wunderground v.1.15,2013-04-05 09:52:00,
2013-04-05 05:53:00,34.8,29.9,29.97,West,262,1.0,3.0,82,0.00,,,0.00,Wunderground v.1.15,2013-04-05 09:53:00,
2013-04-05 05:57:00,34.8,29.9,29.97,West,270,1.0,3.0,82,0.00,,,0.00,Wunderground v.1.15,2013-04-05 09:57:00,
2013-04-05 05:58:00,34.8,29.9,29.97,West,270,0.0,3.0,82,0.00,,,0.00,Wunderground v.1.15,2013-04-05 09:58:00,
2013-04-05 06:02:00,34.8,29.9,29.97,WSW,255,0.0,2.0,82,0.00,,,0.00,Wunderground v.1.15,2013-04-05 10:02:00,
2013-04-05 06:03:00,34.8,29.9,29.97,WNW,284,0.0,2.0,82,0.00,,,0.00,Wunderground v.1.15,2013-04-05 10:03:00,
2013-04-05 06:07:00,34.7,29.8,29.97,WNW,288,3.0,3.0,82,0.00,,,0.00,Wunderground v.1.15,2013-04-05 10:07:00,
2013-04-05 06:08:00,34.7,29.8,29.97,NNW,328,0.0,3.0,82,0.00,,,0.00,Wunderground v.1.15,2013-04-05 10:08:00,
2013-04-05 06:12:00,34.7,29.8,29.97,West,273,0.0,1.0,82,0.00,,,0.00,Wunderground v.1.15,2013-04-05 10:12:00,
2013-04-05 06:13:00,34.7,29.8,29.97,WNW,300,0.0,1.0,82,0.00,,,0.00,Wunderground v.1.15,2013-04-05 10:13:00,
2013-04-05 06:17:00,34.7,30.1,29.97,WNW,294,0.0,2.0,83,0.00,,,0.00,Wunderground v.1.15,2013-04-05 10:17:00,
2013-04-05 06:18:00,34.7,30.1,29.97,WNW,284,0.0,2.0,83,0.00,,,0.00,Wunderground v.1.15,2013-04-05 10:18:00,
2013-04-05 06:22:00,34.7,30.1,29.97,WNW,285,0.0,1.0,83,0.00,,,0.00,Wunderground v.1.15,2013-04-05 10:22:00,
2013-04-05 06:23:00,34.7,30.1,29.97,WNW,285,0.0,1.0,83,0.00,,,0.00,Wunderground v.1.15,2013-04-05 10:23:00,
2013-04-05 06:24:00,34.6,30.0,29.97,WNW,287,0.0,1.0,83,0.00,,,0.00,Wunderground v.1.15,2013-04-05 10:24:00,
2013-04-05 06:28:00,34.7,30.1,29.97,NNW,330,1.0,3.0,83,0.00,,,0.00,Wunderground v.1.15,2013-04-05 10:28:00,
2013-04-05 06:29:00,34.7,30.1,29.98,WNW,285,0.0,3.0,83,0.00,,,0.00,Wunderground v.1.15,2013-04-05 10:29:00,
2013-04-05 06:33:00,34.8,30.2,29.98,WNW,301,2.0,3.0,83,0.00,,,0.00,Wunderground v.1.15,2013-04-05 10:33:00,
2013-04-05 06:34:00,34.8,30.2,29.97,West,260,0.0,3.0,83,0.00,,,0.00,Wunderground v.1.15,2013-04-05 10:34:00,
2013-04-05 06:38:00,34.9,30.3,29.97,NNW,348,0.0,3.0,83,0.00,,,0.00,Wunderground v.1.15,2013-04-05 10:38:00,
2013-04-05 06:39:00,35.0,30.4,29.97,West,278,0.0,3.0,83,0.00,,,0.00,Wunderground v.1.15,2013-04-05 10:39:00,
2013-04-05 06:40:00,35.0,30.4,29.97,West,259,0.0,1.0,83,0.00,,,0.00,Wunderground v.1.15,2013-04-05 10:40:00,
2013-04-05 06:43:00,35.0,30.4,29.97,West,273,0.0,1.0,83,0.00,,,0.00,Wunderground v.1.15,2013-04-05 10:43:00,
2013-04-05 06:45:00,35.0,30.4,29.97,WSW,249,0.0,1.0,83,0.00,,,0.00,Wunderground v.1.15,2013-04-05 10:45:00,
2013-04-05 06:48:00,35.1,30.5,29.97,SSW,195,1.0,3.0,83,0.00,,,0.00,Wunderground v.1.15,2013-04-05 10:48:00,
2013-04-05 06:50:00,35.1,30.5,29.97,West,276,0.0,2.0,83,0.00,,,0.00,Wunderground v.1.15,2013-04-05 10:50:00,
2013-04-05 06:53:00,35.2,30.6,29.97,NW,316,0.0,2.0,83,0.00,,,0.00,Wunderground v.1.15,2013-04-05 10:53:00,
2013-04-05 06:55:00,35.3,30.7,29.97,NW,316,0.0,2.0,83,0.00,,,0.00,Wunderground v.1.15,2013-04-05 10:55:00,
2013-04-05 06:56:00,35.2,30.6,29.97,WSW,252,0.0,2.0,83,0.00,,,0.00,Wunderground v.1.15,2013-04-05 10:56:00,
2013-04-05 06:58:00,35.3,30.7,29.96,WSW,252,0.0,2.0,83,0.00,,,0.00,Wunderground v.1.15,2013-04-05 10:58:00,
2013-04-05 07:00:00,35.3,30.7,29.96,West,259,0.0,1.0,83,0.00,,,0.00,Wunderground v.1.15,2013-04-05 11:00:00,
2013-04-05 07:01:00,35.3,30.7,29.96,West,259,0.0,1.0,83,0.00,,,0.00,Wunderground v.1.15,2013-04-05 11:01:00,
2013-04-05 07:03:00,35.4,30.8,29.96,West,259,0.0,1.0,83,0.00,,,0.00,Wunderground v.1.15,2013-04-05 11:03:00,
2013-04-05 07:05:00,35.4,30.8,29.96,West,266,0.0,2.0,83,0.00,,,0.00,Wunderground v.1.15,2013-04-05 11:05:00,
2013-04-05 07:06:00,35.4,30.8,29.96,West,266,0.0,2.0,83,0.00,,,0.00,Wunderground v.1.15,2013-04-05 11:06:00,
2013-04-05 07:09:00,35.5,30.8,29.96,West,266,0.0,2.0,83,0.00,,,0.00,Wunderground v.1.15,2013-04-05 11:09:00,
2013-04-05 07:11:00,35.5,30.8,29.97,West,264,0.0,0.0,83,0.00,,,0.00,Wunderground v.1.15,2013-04-05 11:11:00,
2013-04-05 07:12:00,35.5,30.8,29.96,West,264,0.0,0.0,83,0.00,,,0.00,Wunderground v.1.15,2013-04-05 11:12:00,
2013-04-05 07:14:00,35.6,30.9,29.96,WSW,257,0.0,1.0,83,0.00,,,0.00,Wunderground v.1.15,2013-04-05 11:14:00,
2013-04-05 07:17:00,35.6,30.9,29.96,West,264,0.0,1.0,83,0.00,,,0.00,Wunderground v.1.15,2013-04-05 11:17:00,
2013-04-05 07:20:00,35.6,30.9,29.96,NNW,328,0.0,0.0,83,0.00,,,0.00,Wunderground v.1.15,2013-04-05 11:20:00,
2013-04-05 07:22:00,35.7,31.0,29.96,NW,326,0.0,1.0,83,0.00,,,0.00,Wunderground v.1.15,2013-04-05 11:22:00,
2013-04-05 07:25:00,35.8,31.1,29.96,WNW,300,0.0,1.0,83,0.00,,,0.00,Wunderground v.1.15,2013-04-05 11:25:00,
2013-04-05 07:27:00,35.8,31.1,29.96,WNW,300,0.0,1.0,83,0.00,,,0.00,Wunderground v.1.15,2013-04-05 11:27:00,
2013-04-05 07:30:00,35.9,31.2,29.96,NW,309,0.0,2.0,83,0.00,,,0.00,Wunderground v.1.15,2013-04-05 11:30:00,
2013-04-05 07:32:00,36.0,31.3,29.96,WNW,300,0.0,2.0,83,0.00,,,0.00,Wunderground v.1.15,2013-04-05 11:32:00,
2013-04-05 07:33:00,36.0,31.3,29.96,WNW,299,0.0,2.0,83,0.00,,,0.00,Wunderground v.1.15,2013-04-05 11:33:00,
2013-04-05 07:35:00,36.1,31.4,29.96,WSW,250,0.0,2.0,83,0.00,,,0.00,Wunderground v.1.15,2013-04-05 11:35:00,
2013-04-05 07:37:00,36.2,31.5,29.96,WNW,301,0.0,2.0,83,0.00,,,0.00,Wunderground v.1.15,2013-04-05 11:37:00,
2013-04-05 07:38:00,36.2,31.5,29.96,WNW,301,0.0,2.0,83,0.00,,,0.00,Wunderground v.1.15,2013-04-05 11:38:00,
2013-04-05 07:41:00,36.4,31.7,29.96,NW,311,0.0,0.0,83,0.00,,,0.00,Wunderground v.1.15,2013-04-05 11:41:00,
2013-04-05 07:42:00,36.5,31.8,29.96,WSW,255,0.0,1.0,83,0.00,,,0.00,Wunderground v.1.15,2013-04-05 11:42:00,
2013-04-05 07:43:00,36.5,31.8,29.96,WSW,255,0.0,1.0,83,0.00,,,0.00,Wunderground v.1.15,2013-04-05 11:43:00,
2013-04-05 07:45:00,36.6,31.9,29.96,SSE,168,0.0,1.0,83,0.00,,,0.00,Wunderground v.1.15,2013-04-05 11:45:00,
2013-04-05 07:47:00,36.7,32.0,29.96,SW,236,0.0,1.0,83,0.00,,,0.00,Wunderground v.1.15,2013-04-05 11:47:00,
2013-04-05 07:48:00,36.8,32.1,29.96,SW,233,0.0,1.0,83,0.00,,,0.00,Wunderground v.1.15,2013-04-05 11:48:00,
2013-04-05 07:49:00,36.8,31.8,29.96,SW,224,1.0,2.0,82,0.00,,,0.00,Wunderground v.1.15,2013-04-05 11:49:00,
2013-04-05 07:50:00,36.9,31.9,29.96,WSW,256,2.0,2.0,82,0.00,,,0.00,Wunderground v.1.15,2013-04-05 11:50:00,
2013-04-05 07:52:00,36.9,31.9,29.96,West,261,1.0,2.0,82,0.00,,,0.00,Wunderground v.1.15,2013-04-05 11:52:00,
2013-04-05 07:53:00,37.0,32.0,29.96,WSW,249,1.0,2.0,82,0.00,,,0.00,Wunderground v.1.15,2013-04-05 11:53:00,
2013-04-05 07:55:00,37.1,31.8,29.96,WNW,283,0.0,3.0,81,0.00,,,0.00,Wunderground v.1.15,2013-04-05 11:55:00,
2013-04-05 07:57:00,37.1,31.8,29.95,West,270,0.0,4.0,81,0.00,,,0.00,Wunderground v.1.15,2013-04-05 11:57:00,
2013-04-05 07:58:00,37.2,31.9,29.95,SW,229,1.0,4.0,81,0.00,,,0.00,Wunderground v.1.15,2013-04-05 11:58:00,
2013-04-05 08:00:00,37.2,31.9,29.95,West,267,2.0,2.0,81,0.00,,,0.00,Wunderground v.1.15,2013-04-05 12:00:00,
2013-04-05 08:02:00,37.3,32.0,29.95,SW,221,0.0,2.0,81,0.00,,,0.00,Wunderground v.1.15,2013-04-05 12:02:00,
2013-04-05 08:03:00,37.3,32.0,29.94,WSW,242,1.0,2.0,81,0.00,,,0.00,Wunderground v.1.15,2013-04-05 12:03:00,
2013-04-05 08:05:00,37.3,32.0,29.94,WSW,245,0.0,2.0,81,0.00,,,0.00,Wunderground v.1.15,2013-04-05 12:05:00,
2013-04-05 08:07:00,37.4,31.8,29.94,NNW,339,1.0,2.0,80,0.00,,,0.00,Wunderground v.1.15,2013-04-05 12:07:00,
2013-04-05 08:08:00,37.4,32.1,29.94,NNW,328,2.0,2.0,81,0.00,,,0.00,Wunderground v.1.15,2013-04-05 12:08:00,
2013-04-05 08:10:00,37.4,32.1,29.94,NW,305,0.0,1.0,81,0.00,,,0.00,Wunderground v.1.15,2013-04-05 12:10:00,
2013-04-05 08:13:00,37.4,32.1,29.94,WNW,302,1.0,1.0,81,0.00,,,0.00,Wunderground v.1.15,2013-04-05 12:13:00,
2013-04-05 08:14:00,37.4,32.1,29.94,NNW,333,0.0,1.0,81,0.00,,,0.00,Wunderground v.1.15,2013-04-05 12:14:00,
2013-04-05 08:15:00,37.4,32.1,29.94,NNW,333,0.0,1.0,81,0.00,,,0.00,Wunderground v.1.15,2013-04-05 12:15:00,
2013-04-05 08:16:00,37.4,32.1,29.94,WNW,290,0.0,1.0,81,0.00,,,0.00,Wunderground v.1.15,2013-04-05 12:16:00,
2013-04-05 08:18:00,37.5,32.2,29.94,WNW,286,0.0,1.0,81,0.00,,,0.00,Wunderground v.1.15,2013-04-05 12:18:00,
2013-04-05 08:20:00,37.5,32.2,29.94,NW,320,0.0,0.0,81,0.00,,,0.00,Wunderground v.1.15,2013-04-05 12:20:00,
2013-04-05 08:22:00,37.6,32.3,29.94,WNW,296,1.0,1.0,81,0.00,,,0.00,Wunderground v.1.15,2013-04-05 12:22:00,
2013-04-05 08:23:00,37.6,32.3,29.94,WNW,286,2.0,2.0,81,0.00,,,0.00,Wunderground v.1.15,2013-04-05 12:23:00,
2013-04-05 08:25:00,37.7,32.1,29.94,NW,306,0.0,2.0,80,0.00,,,0.00,Wunderground v.1.15,2013-04-05 12:25:00,
2013-04-05 08:26:00,37.7,32.1,29.94,NW,307,0.0,2.0,80,0.00,,,0.00,Wunderground v.1.15,2013-04-05 12:26:00,
2013-04-05 08:27:00,37.7,32.4,29.94,NW,306,0.0,2.0,81,0.00,,,0.00,Wunderground v.1.15,2013-04-05 12:27:00,
2013-04-05 08:28:00,37.8,32.5,29.94,West,269,0.0,2.0,81,0.00,,,0.00,Wunderground v.1.15,2013-04-05 12:28:00,
2013-04-05 08:30:00,37.9,32.3,29.93,WSW,249,0.0,1.0,80,0.00,,,0.00,Wunderground v.1.15,2013-04-05 12:30:00,
2013-04-05 08:31:00,37.9,32.3,29.93,WSW,252,0.0,1.0,80,0.00,,,0.00,Wunderground v.1.15,2013-04-05 12:31:00,
2013-04-05 08:32:00,37.9,32.3,29.93,SW,231,5.0,5.0,80,0.00,,,0.00,Wunderground v.1.15,2013-04-05 12:32:00,
2013-04-05 08:33:00,37.9,32.3,29.93,SSW,203,1.0,5.0,80,0.00,,,0.00,Wunderground v.1.15,2013-04-05 12:33:00,
2013-04-05 08:35:00,38.0,32.4,29.93,West,262,1.0,5.0,80,0.00,,,0.00,Wunderground v.1.15,2013-04-05 12:35:00,
2013-04-05 08:36:00,38.0,32.4,29.93,SSW,209,2.0,5.0,80,0.00,,,0.00,Wunderground v.1.15,2013-04-05 12:36:00,
2013-04-05 08:38:00,38.1,32.5,29.92,WNW,288,1.0,5.0,80,0.00,,,0.00,Wunderground v.1.15,2013-04-05 12:38:00,
2013-04-05 08:40:00,38.1,32.5,29.93,NNW,328,1.0,2.0,80,0.00,,,0.00,Wunderground v.1.15,2013-04-05 12:40:00,
2013-04-05 08:41:00,38.1,32.5,29.93,NW,308,3.0,3.0,80,0.00,,,0.00,Wunderground v.1.15,2013-04-05 12:41:00,
2013-04-05 08:43:00,38.3,32.4,29.93,NW,304,2.0,4.0,79,0.00,,,0.00,Wunderground v.1.15,2013-04-05 12:43:00,
2013-04-05 08:45:00,38.3,32.4,29.93,NNW,338,1.0,4.0,79,0.00,,,0.00,Wunderground v.1.15,2013-04-05 12:45:00,
2013-04-05 08:46:00,38.3,32.4,29.93,NNW,338,1.0,4.0,79,0.00,,,0.00,Wunderground v.1.15,2013-04-05 12:46:00,
2013-04-05 08:49:00,38.3,32.4,29.93,NNW,348,2.0,4.0,79,0.00,,,0.00,Wunderground v.1.15,2013-04-05 12:49:00,
2013-04-05 08:50:00,38.3,32.4,29.93,NW,322,2.0,3.0,79,0.00,,,0.00,Wunderground v.1.15,2013-04-05 12:50:00,
2013-04-05 08:51:00,38.3,32.4,29.93,NW,321,1.0,3.0,79,0.00,,,0.00,Wunderground v.1.15,2013-04-05 12:51:00,
2013-04-05 08:55:00,38.4,32.1,29.93,WNW,287,0.0,4.0,78,0.00,,,0.00,Wunderground v.1.15,2013-04-05 12:55:00,
2013-04-05 08:56:00,38.4,32.1,29.93,WNW,297,1.0,4.0,78,0.00,,,0.00,Wunderground v.1.15,2013-04-05 12:56:00,
2013-04-05 08:57:00,38.4,32.5,29.93,WSW,238,0.0,4.0,79,0.00,,,0.00,Wunderground v.1.15,2013-04-05 12:57:00,
2013-04-05 09:00:00,38.5,32.6,29.93,NNW,332,3.0,4.0,79,0.00,,,0.00,Wunderground v.1.15,2013-04-05 13:00:00,
2013-04-05 09:01:00,38.5,32.2,29.93,West,264,0.0,2.0,78,0.00,,,0.00,Wunderground v.1.15,2013-04-05 13:01:00,
2013-04-05 09:02:00,38.6,32.6,29.93,NW,319,1.0,2.0,79,0.00,,,0.00,Wunderground v.1.15,2013-04-05 13:02:00,
2013-04-05 09:05:00,38.7,32.7,29.93,WNW,303,2.0,2.0,79,0.00,,,0.00,Wunderground v.1.15,2013-04-05 13:05:00,
2013-04-05 09:06:00,38.8,32.5,29.93,NW,315,0.0,3.0,78,0.00,,,0.00,Wunderground v.1.15,2013-04-05 13:06:00,
2013-04-05 09:07:00,38.8,32.5,29.92,WNW,297,2.0,4.0,78,0.00,,,0.00,Wunderground v.1.15,2013-04-05 13:07:00,
2013-04-05 09:10:00,39.0,32.7,29.92,WSW,253,1.0,1.0,78,0.00,,,0.00,Wunderground v.1.15,2013-04-05 13:10:00,
2013-04-05 09:12:00,39.1,32.8,29.92,WNW,299,3.0,4.0,78,0.00,,,0.00,Wunderground v.1.15,2013-04-05 13:12:00,
2013-04-05 09:15:00,39.3,32.7,29.92,West,277,1.0,4.0,77,0.00,,,0.00,Wunderground v.1.15,2013-04-05 13:15:00,
2013-04-05 09:17:00,39.4,32.8,29.92,NNW,336,1.0,4.0,77,0.00,,,0.00,Wunderground v.1.15,2013-04-05 13:17:00,
2013-04-05 09:18:00,39.5,32.9,29.92,NW,312,4.0,4.0,77,0.00,,,0.00,Wunderground v.1.15,2013-04-05 13:18:00,
2013-04-05 09:21:00,39.5,32.6,29.92,NNW,340,2.0,2.0,76,0.00,,,0.00,Wunderground v.1.15,2013-04-05 13:21:00,
2013-04-05 09:22:00,39.5,32.6,29.92,WNW,287,3.0,4.0,76,0.00,,,0.00,Wunderground v.1.15,2013-04-05 13:22:00,
2013-04-05 09:24:00,39.5,32.6,29.92,WNW,294,0.0,4.0,76,0.00,,,0.00,Wunderground v.1.15,2013-04-05 13:24:00,
2013-04-05 09:26:00,39.5,32.9,29.92,NNW,339,1.0,4.0,77,0.00,,,0.00,Wunderground v.1.15,2013-04-05 13:26:00,
2013-04-05 09:27:00,39.6,33.0,29.92,NW,323,2.0,4.0,77,0.00,,,0.00,Wunderground v.1.15,2013-04-05 13:27:00,
2013-04-05 09:29:00,39.6,32.3,29.92,NNW,332,2.0,5.0,75,0.00,,,0.00,Wunderground v.1.15,2013-04-05 13:29:00,
2013-04-05 09:32:00,39.6,32.0,29.92,WSW,253,1.0,5.0,74,0.00,,,0.00,Wunderground v.1.15,2013-04-05 13:32:00,
2013-04-05 09:35:00,39.6,32.0,29.92,NNW,330,0.0,5.0,74,0.00,,,0.00,Wunderground v.1.15,2013-04-05 13:35:00,
2013-04-05 09:37:00,39.7,32.4,29.92,NNW,333,4.0,5.0,75,0.00,,,0.00,Wunderground v.1.15,2013-04-05 13:37:00,
2013-04-05 09:38:00,39.7,32.1,29.92,NW,326,3.0,5.0,74,0.00,,,0.00,Wunderground v.1.15,2013-04-05 13:38:00,
2013-04-05 09:40:00,39.7,31.8,29.92,NNW,344,4.0,4.0,73,0.00,,,0.00,Wunderground v.1.15,2013-04-05 13:40:00,
2013-04-05 09:43:00,39.7,31.8,29.91,WNW,286,1.0,6.0,73,0.00,,,0.00,Wunderground v.1.15,2013-04-05 13:43:00,
2013-04-05 09:45:00,39.7,31.8,29.92,NW,319,1.0,6.0,73,0.00,,,0.00,Wunderground v.1.15,2013-04-05 13:45:00,
2013-04-05 09:48:00,39.9,31.9,29.92,NW,312,1.0,6.0,73,0.00,,,0.00,Wunderground v.1.15,2013-04-05 13:48:00,
2013-04-05 09:49:00,40.1,32.1,29.91,NW,315,2.0,6.0,73,0.00,,,0.00,Wunderground v.1.15,2013-04-05 13:49:00,
2013-04-05 09:50:00,40.2,32.2,29.91,NNE,18,3.0,4.0,73,0.00,,,0.00,Wunderground v.1.15,2013-04-05 13:50:00,
2013-04-05 09:53:00,40.5,32.5,29.90,NNW,328,2.0,4.0,73,0.00,,,0.00,Wunderground v.1.15,2013-04-05 13:53:00,
2013-04-05 09:56:00,40.8,32.5,29.90,NW,323,2.0,4.0,72,0.00,,,0.00,Wunderground v.1.15,2013-04-05 13:56:00,
2013-04-05 09:58:00,41.1,32.4,29.90,North,8,0.0,5.0,71,0.00,,,0.00,Wunderground v.1.15,2013-04-05 13:58:00,
2013-04-05 10:01:00,41.3,32.2,29.90,WNW,300,1.0,3.0,70,0.00,,,0.00,Wunderground v.1.15,2013-04-05 14:01:00,
2013-04-05 10:02:00,41.4,32.0,29.90,NNW,333,1.0,3.0,69,0.00,,,0.00,Wunderground v.1.15,2013-04-05 14:02:00,
2013-04-05 10:04:00,41.5,32.1,29.90,NNW,330,0.0,3.0,69,0.00,,,0.00,Wunderground v.1.15,2013-04-05 14:04:00,
2013-04-05 10:07:00,41.8,32.4,29.90,NW,323,4.0,4.0,69,0.00,,,0.00,Wunderground v.1.15,2013-04-05 14:07:00,
2013-04-05 10:09:00,41.9,31.7,29.90,NW,322,3.0,5.0,67,0.00,,,0.00,Wunderground v.1.15,2013-04-05 14:09:00,
2013-04-05 10:10:00,42.0,31.8,29.90,NNW,347,0.0,3.0,67,0.00,,,0.00,Wunderground v.1.15,2013-04-05 14:10:00,
2013-04-05 10:12:00,42.0,31.8,29.90,NW,311,6.0,6.0,67,0.00,,,0.00,Wunderground v.1.15,2013-04-05 14:12:00,
2013-04-05 10:15:00,42.1,31.6,29.90,WNW,303,0.0,6.0,66,0.00,,,0.00,Wunderground v.1.15,2013-04-05 14:15:00,
2013-04-05 10:18:00,42.1,31.6,29.90,NW,319,1.0,6.0,66,0.00,,,0.00,Wunderground v.1.15,2013-04-05 14:18:00,
2013-04-05 10:20:00,42.2,31.6,29.90,West,278,1.0,3.0,66,0.00,,,0.00,Wunderground v.1.15,2013-04-05 14:20:00,
2013-04-05 10:23:00,42.3,31.4,29.89,NNW,338,1.0,4.0,65,0.00,,,0.00,Wunderground v.1.15,2013-04-05 14:23:00,
2013-04-05 10:24:00,42.4,31.5,29.89,NNW,338,0.0,4.0,65,0.00,,,0.00,Wunderground v.1.15,2013-04-05 14:24:00,
2013-04-05 10:25:00,42.4,31.5,29.89,NNW,345,3.0,6.0,65,0.00,,,0.00,Wunderground v.1.15,2013-04-05 14:25:00,
2013-04-05 10:26:00,42.5,31.6,29.89,NW,311,3.0,6.0,65,0.00,,,0.00,Wunderground v.1.15,2013-04-05 14:26:00,
2013-04-05 10:29:00,42.5,30.8,29.89,NW,311,1.0,6.0,63,0.00,,,0.00,Wunderground v.1.15,2013-04-05 14:29:00,
2013-04-05 10:31:00,42.6,30.9,29.89,North,355,3.0,3.0,63,0.00,,,0.00,Wunderground v.1.15,2013-04-05 14:31:00,
2013-04-05 10:36:00,42.6,30.1,29.89,NNW,345,2.0,4.0,61,0.00,,,0.00,Wunderground v.1.15,2013-04-05 14:36:00,
2013-04-05 10:37:00,42.6,30.1,29.89,North,349,2.0,4.0,61,0.00,,,0.00,Wunderground v.1.15,2013-04-05 14:37:00,
2013-04-05 10:42:00,42.6,30.5,29.88,NNW,335,1.0,4.0,62,0.00,,,0.00,Wunderground v.1.15,2013-04-05 14:42:00,
2013-04-05 10:47:00,42.8,29.9,29.88,West,261,1.0,6.0,60,0.00,,,0.00,Wunderground v.1.15,2013-04-05 14:47:00,
2013-04-05 10:48:00,42.9,30.0,29.88,NNW,339,1.0,6.0,60,0.00,,,0.00,Wunderground v.1.15,2013-04-05 14:48:00,
2013-04-05 10:52:00,42.9,29.5,29.88,West,260,0.0,3.0,59,0.00,,,0.00,Wunderground v.1.15,2013-04-05 14:52:00,
2013-04-05 10:53:00,42.9,30.0,29.88,WNW,290,1.0,3.0,60,0.00,,,0.00,Wunderground v.1.15,2013-04-05 14:53:00,
2013-04-05 10:57:00,43.0,29.2,29.87,NNW,345,2.0,5.0,58,0.00,,,0.00,Wunderground v.1.15,2013-04-05 14:57:00,
2013-04-05 10:58:00,43.0,29.2,29.87,NNW,343,1.0,5.0,58,0.00,,,0.00,Wunderground v.1.15,2013-04-05 14:58:00,
2013-04-05 11:02:00,43.1,29.7,29.87,NNW,340,1.0,2.0,59,0.00,,,0.00,Wunderground v.1.15,2013-04-05 15:02:00,
2013-04-05 11:03:00,43.2,29.8,29.87,NW,314,1.0,2.0,59,0.00,,,0.00,Wunderground v.1.15,2013-04-05 15:03:00,
2013-04-05 11:04:00,43.2,29.8,29.87,NW,318,1.0,2.0,59,0.00,,,0.00,Wunderground v.1.15,2013-04-05 15:04:00,
2013-04-05 11:07:00,43.4,30.0,29.87,NNW,332,2.0,5.0,59,0.00,,,0.00,Wunderground v.1.15,2013-04-05 15:07:00,
2013-04-05 11:09:00,43.5,30.1,29.87,NW,304,2.0,5.0,59,0.00,,,0.00,Wunderground v.1.15,2013-04-05 15:09:00,
2013-04-05 11:13:00,43.7,30.7,29.87,NW,321,1.0,2.0,60,0.00,,,0.00,Wunderground v.1.15,2013-04-05 15:13:00,
2013-04-05 11:14:00,43.7,30.3,29.87,NW,315,0.0,2.0,59,0.00,,,0.00,Wunderground v.1.15,2013-04-05 15:14:00,
2013-04-05 11:15:00,43.9,30.5,29.87,NNW,331,2.0,3.0,59,0.00,,,0.00,Wunderground v.1.15,2013-04-05 15:15:00,
2013-04-05 11:18:00,44.1,31.1,29.87,West,267,0.0,3.0,60,0.00,,,0.00,Wunderground v.1.15,2013-04-05 15:18:00,
2013-04-05 11:20:00,44.5,31.1,29.87,NW,320,0.0,2.0,59,0.00,,,0.00,Wunderground v.1.15,2013-04-05 15:20:00,
2013-04-05 11:22:00,44.7,30.8,29.87,NW,307,1.0,2.0,58,0.00,,,0.00,Wunderground v.1.15,2013-04-05 15:22:00,
2013-04-05 11:23:00,44.7,30.8,29.87,NNW,344,2.0,3.0,58,0.00,,,0.00,Wunderground v.1.15,2013-04-05 15:23:00,
2013-04-05 11:26:00,44.8,30.5,29.86,North,349,2.0,3.0,57,0.00,,,0.00,Wunderground v.1.15,2013-04-05 15:26:00,
2013-04-05 11:27:00,44.8,30.5,29.86,West,269,1.0,3.0,57,0.00,,,0.00,Wunderground v.1.15,2013-04-05 15:27:00,
2013-04-05 11:30:00,45.1,31.6,29.86,North,355,3.0,4.0,59,0.00,,,0.00,Wunderground v.1.15,2013-04-05 15:30:00,
2013-04-05 11:32:00,45.3,30.5,29.86,NW,314,1.0,5.0,56,0.00,,,0.00,Wunderground v.1.15,2013-04-05 15:32:00,
2013-04-05 11:35:00,45.6,31.2,29.86,North,11,2.0,5.0,57,0.00,,,0.00,Wunderground v.1.15,2013-04-05 15:35:00,
2013-04-05 11:37:00,45.6,29.9,29.85,NNW,345,5.0,7.0,54,0.00,,,0.00,Wunderground v.1.15,2013-04-05 15:37:00,
2013-04-05 11:38:00,45.6,30.3,29.85,NNW,339,4.0,7.0,55,0.00,,,0.00,Wunderground v.1.15,2013-04-05 15:38:00,
2013-04-05 11:40:00,45.7,30.9,29.85,NW,323,3.0,7.0,56,0.00,,,0.00,Wunderground v.1.15,2013-04-05 15:40:00,
2013-04-05 11:42:00,45.6,29.9,29.85,NW,314,4.0,7.0,54,0.00,,,0.00,Wunderground v.1.15,2013-04-05 15:42:00,
2013-04-05 11:43:00,45.6,30.8,29.85,NNW,342,4.0,7.0,56,0.00,,,0.00,Wunderground v.1.15,2013-04-05 15:43:00,
2013-04-05 11:45:00,45.6,30.3,29.85,NW,323,3.0,7.0,55,0.00,,,0.00,Wunderground v.1.15,2013-04-05 15:45:00,
2013-04-05 11:47:00,45.7,30.4,29.85,NNW,345,3.0,7.0,55,0.00,,,0.00,Wunderground v.1.15,2013-04-05 15:47:00,
2013-04-05 11:48:00,45.7,30.9,29.85,NNW,332,3.0,7.0,56,0.00,,,0.00,Wunderground v.1.15,2013-04-05 15:48:00,
2013-04-05 11:50:00,45.8,30.1,29.85,NNW,335,4.0,4.0,54,0.00,,,0.00,Wunderground v.1.15,2013-04-05 15:50:00,
2013-04-05 11:53:00,45.8,30.5,29.84,North,5,5.0,7.0,55,0.00,,,0.00,Wunderground v.1.15,2013-04-05 15:53:00,
2013-04-05 11:54:00,45.8,30.1,29.84,WNW,294,1.0,7.0,54,0.00,,,0.00,Wunderground v.1.15,2013-04-05 15:54:00,
2013-04-05 11:56:00,45.7,30.0,29.84,NW,323,3.0,7.0,54,0.00,,,0.00,Wunderground v.1.15,2013-04-05 15:56:00,
2013-04-05 11:58:00,45.8,30.1,29.84,North,354,3.0,7.0,54,0.00,,,0.00,Wunderground v.1.15,2013-04-05 15:58:00,
2013-04-05 11:59:00,45.9,30.6,29.84,NNW,343,4.0,7.0,55,0.00,,,0.00,Wunderground v.1.15,2013-04-05 15:59:00,
2013-04-05 12:02:00,46.2,31.4,29.84,NNW,333,3.0,7.0,56,0.00,,,0.00,Wunderground v.1.15,2013-04-05 16:02:00,
2013-04-05 12:03:00,46.5,31.2,29.84,NW,316,2.0,7.0,55,0.00,,,0.00,Wunderground v.1.15,2013-04-05 16:03:00,
2013-04-05 12:04:00,46.5,31.2,29.84,WNW,300,0.0,7.0,55,0.00,,,0.00,Wunderground v.1.15,2013-04-05 16:04:00,
2013-04-05 12:08:00,47.3,31.5,29.83,WNW,284,1.0,7.0,54,0.00,,,0.00,Wunderground v.1.15,2013-04-05 16:08:00,
2013-04-05 12:09:00,47.5,31.2,29.83,NNW,343,3.0,7.0,53,0.00,,,0.00,Wunderground v.1.15,2013-04-05 16:09:00,
2013-04-05 12:10:00,47.5,31.2,29.83,NNW,342,3.0,3.0,53,0.00,,,0.00,Wunderground v.1.15,2013-04-05 16:10:00,
2013-04-05 12:13:00,47.8,31.5,29.83,North,352,5.0,6.0,53,0.00,,,0.00,Wunderground v.1.15,2013-04-05 16:13:00,
2013-04-05 12:15:00,47.9,30.6,29.83,North,355,3.0,6.0,51,0.00,,,0.00,Wunderground v.1.15,2013-04-05 16:15:00,
2013-04-05 12:16:00,47.9,31.1,29.83,NNW,330,3.0,6.0,52,0.00,,,0.00,Wunderground v.1.15,2013-04-05 16:16:00,
2013-04-05 12:18:00,48.2,31.9,29.83,NW,326,3.0,6.0,53,0.00,,,0.00,Wunderground v.1.15,2013-04-05 16:18:00,
2013-04-05 12:19:00,48.2,31.4,29.83,NW,326,4.0,6.0,52,0.00,,,0.00,Wunderground v.1.15,2013-04-05 16:19:00,
2013-04-05 12:20:00,48.4,31.6,29.83,NNW,342,2.0,3.0,52,0.00,,,0.00,Wunderground v.1.15,2013-04-05 16:20:00,
2013-04-05 12:22:00,48.6,31.8,29.82,WNW,293,2.0,5.0,52,0.00,,,0.00,Wunderground v.1.15,2013-04-05 16:22:00,
2013-04-05 12:23:00,48.9,31.1,29.82,NW,308,0.0,5.0,50,0.00,,,0.00,Wunderground v.1.15,2013-04-05 16:23:00,
2013-04-05 12:25:00,49.0,30.7,29.82,WNW,295,2.0,5.0,49,0.00,,,0.00,Wunderground v.1.15,2013-04-05 16:25:00,
2013-04-05 12:28:00,49.6,30.7,29.82,NNW,346,5.0,6.0,48,0.00,,,0.00,Wunderground v.1.15,2013-04-05 16:28:00,
2013-04-05 12:29:00,49.9,29.4,29.82,NNE,13,2.0,6.0,45,0.00,,,0.00,Wunderground v.1.15,2013-04-05 16:29:00,
2013-04-05 12:30:00,50.0,30.0,29.81,NNE,15,2.0,2.0,46,0.00,,,0.00,Wunderground v.1.15,2013-04-05 16:30:00,
2013-04-05 12:33:00,50.4,29.3,29.81,NNW,348,3.0,5.0,44,0.00,,,0.00,Wunderground v.1.15,2013-04-05 16:33:00,
2013-04-05 12:35:00,50.4,28.7,29.81,NNW,333,4.0,5.0,43,0.00,,,0.00,Wunderground v.1.15,2013-04-05 16:35:00,
2013-04-05 12:39:00,50.5,27.0,29.80,North,352,8.0,10.0,40,0.00,,,0.00,Wunderground v.1.15,2013-04-05 16:39:00,
2013-04-05 12:40:00,50.3,26.3,29.80,NNW,345,5.0,10.0,39,0.00,,,0.00,Wunderground v.1.15,2013-04-05 16:40:00,
2013-04-05 12:42:00,50.3,28.1,29.80,NE,50,5.0,9.0,42,0.00,,,0.00,Wunderground v.1.15,2013-04-05 16:42:00,
2013-04-05 12:44:00,50.4,27.0,29.80,North,357,6.0,9.0,40,0.00,,,0.00,Wunderground v.1.15,2013-04-05 16:44:00,
2013-04-05 12:45:00,50.3,26.3,29.80,NE,41,3.0,9.0,39,0.00,,,0.00,Wunderground v.1.15,2013-04-05 16:45:00,
2013-04-05 12:47:00,50.1,26.7,29.80,NE,38,3.0,9.0,40,0.00,,,0.00,Wunderground v.1.15,2013-04-05 16:47:00,
2013-04-05 12:49:00,50.4,26.3,29.80,West,263,2.0,9.0,39,0.00,,,0.00,Wunderground v.1.15,2013-04-05 16:49:00,
2013-04-05 12:50:00,50.5,26.4,29.80,West,264,2.0,3.0,39,0.00,,,0.00,Wunderground v.1.15,2013-04-05 16:50:00,
2013-04-05 12:51:00,50.5,26.4,29.79,SW,235,0.0,3.0,39,0.00,,,0.00,Wunderground v.1.15,2013-04-05 16:51:00,
2013-04-05 12:52:00,50.7,27.2,29.79,NNW,344,1.0,3.0,40,0.00,,,0.00,Wunderground v.1.15,2013-04-05 16:52:00,
2013-04-05 12:54:00,51.1,27.0,29.79,NNW,345,4.0,4.0,39,0.00,,,0.00,Wunderground v.1.15,2013-04-05 16:54:00,
2013-04-05 12:57:00,51.3,27.8,29.79,NNW,335,5.0,5.0,40,0.00,,,0.00,Wunderground v.1.15,2013-04-05 16:57:00,
2013-04-05 12:58:00,51.3,26.5,29.79,NNW,344,9.0,9.0,38,0.00,,,0.00,Wunderground v.1.15,2013-04-05 16:58:00,
2013-04-05 12:59:00,51.4,26.6,29.79,NNW,345,7.0,10.0,38,0.00,,,0.00,Wunderground v.1.15,2013-04-05 16:59:00,
2013-04-05 13:02:00,51.3,26.5,29.78,WNW,300,4.0,7.0,38,0.00,,,0.00,Wunderground v.1.15,2013-04-05 17:02:00,
2013-04-05 13:03:00,51.2,25.8,29.78,NNW,340,4.0,7.0,37,0.00,,,0.00,Wunderground v.1.15,2013-04-05 17:03:00,
2013-04-05 13:05:00,51.2,25.1,29.78,North,352,8.0,9.0,36,0.00,,,0.00,Wunderground v.1.15,2013-04-05 17:05:00,
2013-04-05 13:07:00,51.0,25.6,29.78,NNW,335,3.0,9.0,37,0.00,,,0.00,Wunderground v.1.15,2013-04-05 17:07:00,
2013-04-05 13:08:00,51.0,25.6,29.78,NW,315,4.0,9.0,37,0.00,,,0.00,Wunderground v.1.15,2013-04-05 17:08:00,
2013-04-05 13:10:00,51.0,25.0,29.78,NNE,27,4.0,4.0,36,0.00,,,0.00,Wunderground v.1.15,2013-04-05 17:10:00,
2013-04-05 13:12:00,51.3,26.5,29.78,NW,323,7.0,11.0,38,0.00,,,0.00,Wunderground v.1.15,2013-04-05 17:12:00,
2013-04-05 13:13:00,51.3,26.5,29.78,WNW,291,2.0,11.0,38,0.00,,,0.00,Wunderground v.1.15,2013-04-05 17:13:00,
2013-04-05 13:16:00,51.5,25.4,29.78,North,10,4.0,11.0,36,0.00,,,0.00,Wunderground v.1.15,2013-04-05 17:16:00,
2013-04-05 13:17:00,51.4,26.0,29.77,NNW,345,7.0,11.0,37,0.00,,,0.00,Wunderground v.1.15,2013-04-05 17:17:00,
2013-04-05 13:18:00,51.4,26.0,29.77,NNW,340,4.0,11.0,37,0.00,,,0.00,Wunderground v.1.15,2013-04-05 17:18:00,
2013-04-05 13:20:00,51.6,25.5,29.77,WNW,301,2.0,5.0,36,0.00,,,0.00,Wunderground v.1.15,2013-04-05 17:20:00,
2013-04-05 13:21:00,51.7,24.9,29.77,NW,312,6.0,7.0,35,0.00,,,0.00,Wunderground v.1.15,2013-04-05 17:21:00,
2013-04-05 13:22:00,51.9,25.8,29.77,NW,315,4.0,7.0,36,0.00,,,0.00,Wunderground v.1.15,2013-04-05 17:22:00,
2013-04-05 13:23:00,52.1,26.6,29.77,NW,324,5.0,8.0,37,0.00,,,0.00,Wunderground v.1.15,2013-04-05 17:23:00,
2013-04-05 13:25:00,52.5,24.9,29.77,NNW,340,3.0,8.0,34,0.00,,,0.00,Wunderground v.1.15,2013-04-05 17:25:00,
2013-04-05 13:26:00,52.6,25.0,29.77,NW,316,2.0,8.0,34,0.00,,,0.00,Wunderground v.1.15,2013-04-05 17:26:00,
2013-04-05 13:28:00,52.7,24.4,29.76,East,95,7.0,8.0,33,0.00,,,0.00,Wunderground v.1.15,2013-04-05 17:28:00,
2013-04-05 13:29:00,52.7,23.6,29.76,NNE,21,3.0,8.0,32,0.00,,,0.00,Wunderground v.1.15,2013-04-05 17:29:00,
2013-04-05 13:30:00,52.7,23.6,29.76,NNW,335,3.0,4.0,32,0.00,,,0.00,Wunderground v.1.15,2013-04-05 17:30:00,
2013-04-05 13:32:00,52.8,23.7,29.76,NE,51,3.0,4.0,32,0.00,,,0.00,Wunderground v.1.15,2013-04-05 17:32:00,
2013-04-05 13:33:00,53.0,26.0,29.76,ENE,68,2.0,4.0,35,0.00,,,0.00,Wunderground v.1.15,2013-04-05 17:33:00,
2013-04-05 13:34:00,53.3,24.2,29.76,SE,132,3.0,4.0,32,0.00,,,0.00,Wunderground v.1.15,2013-04-05 17:34:00,
2013-04-05 13:36:00,53.5,25.1,29.75,ESE,102,3.0,5.0,33,0.00,,,0.00,Wunderground v.1.15,2013-04-05 17:36:00,
2013-04-05 13:37:00,53.7,25.2,29.75,North,356,4.0,6.0,33,0.00,,,0.00,Wunderground v.1.15,2013-04-05 17:37:00,
2013-04-05 13:39:00,54.4,24.4,29.75,West,276,2.0,6.0,31,0.00,,,0.00,Wunderground v.1.15,2013-04-05 17:39:00,
2013-04-05 13:40:00,54.6,24.5,29.75,North,355,2.0,4.0,31,0.00,,,0.00,Wunderground v.1.15,2013-04-05 17:40:00,
2013-04-05 13:41:00,54.8,23.9,29.75,NNW,345,5.0,5.0,30,0.00,,,0.00,Wunderground v.1.15,2013-04-05 17:41:00,
2013-04-05 13:42:00,54.8,23.9,29.75,West,269,3.0,8.0,30,0.00,,,0.00,Wunderground v.1.15,2013-04-05 17:42:00,
2013-04-05 13:44:00,54.9,24.0,29.75,ESE,111,2.0,8.0,30,0.00,,,0.00,Wunderground v.1.15,2013-04-05 17:44:00,
2013-04-05 13:46:00,54.9,24.8,29.75,East,99,3.0,8.0,31,0.00,,,0.00,Wunderground v.1.15,2013-04-05 17:46:00,
2013-04-05 13:47:00,54.9,23.2,29.75,SE,146,4.0,8.0,29,0.00,,,0.00,Wunderground v.1.15,2013-04-05 17:47:00,
2013-04-05 13:50:00,55.3,22.7,29.74,ENE,75,4.0,6.0,28,0.00,,,0.00,Wunderground v.1.15,2013-04-05 17:50:00,
2013-04-05 13:51:00,55.3,22.7,29.74,East,83,3.0,7.0,28,0.00,,,0.00,Wunderground v.1.15,2013-04-05 17:51:00,
2013-04-05 13:52:00,55.3,23.5,29.74,ENE,61,4.0,7.0,29,0.00,,,0.00,Wunderground v.1.15,2013-04-05 17:52:00,
2013-04-05 13:55:00,55.4,23.6,29.74,NE,43,1.0,7.0,29,0.00,,,0.00,Wunderground v.1.15,2013-04-05 17:55:00,
2013-04-05 13:56:00,55.6,23.8,29.74,North,352,6.0,7.0,29,0.00,,,0.00,Wunderground v.1.15,2013-04-05 17:56:00,
2013-04-05 13:57:00,55.8,22.3,29.73,NE,41,3.0,7.0,27,0.00,,,0.00,Wunderground v.1.15,2013-04-05 17:57:00,
2013-04-05 13:58:00,55.8,22.3,29.73,NE,44,3.0,7.0,27,0.00,,,0.00,Wunderground v.1.15,2013-04-05 17:58:00,
2013-04-05 14:00:00,56.3,23.6,29.73,SE,143,0.0,3.0,28,0.00,,,0.00,Wunderground v.1.15,2013-04-05 18:00:00,
2013-04-05 14:02:00,56.6,23.0,29.73,ENE,76,2.0,3.0,27,0.00,,,0.00,Wunderground v.1.15,2013-04-05 18:02:00,
2013-04-05 14:03:00,56.6,23.0,29.73,ENE,63,4.0,7.0,27,0.00,,,0.00,Wunderground v.1.15,2013-04-05 18:03:00,
2013-04-05 14:05:00,56.5,20.1,29.73,NNW,347,2.0,7.0,24,0.00,,,0.00,Wunderground v.1.15,2013-04-05 18:05:00,
2013-04-05 14:07:00,56.7,22.2,29.73,NW,318,2.0,7.0,26,0.00,,,0.00,Wunderground v.1.15,2013-04-05 18:07:00,
2013-04-05 14:08:00,56.8,22.2,29.73,NNW,342,5.0,7.0,26,0.00,,,0.00,Wunderground v.1.15,2013-04-05 18:08:00,
2013-04-05 14:10:00,56.9,20.4,29.73,NE,43,5.0,5.0,24,0.00,,,0.00,Wunderground v.1.15,2013-04-05 18:10:00,
2013-04-05 14:12:00,57.0,19.5,29.73,NW,306,1.0,6.0,23,0.00,,,0.00,Wunderground v.1.15,2013-04-05 18:12:00,
2013-04-05 14:13:00,57.1,20.6,29.73,NNW,330,3.0,6.0,24,0.00,,,0.00,Wunderground v.1.15,2013-04-05 18:13:00,
2013-04-05 14:16:00,57.2,19.7,29.72,NNE,30,4.0,10.0,23,0.00,,,0.00,Wunderground v.1.15,2013-04-05 18:16:00,
2013-04-05 14:17:00,57.1,19.6,29.72,ENE,63,3.0,10.0,23,0.00,,,0.00,Wunderground v.1.15,2013-04-05 18:17:00,
2013-04-05 14:18:00,57.0,18.5,29.72,NE,51,5.0,10.0,22,0.00,,,0.00,Wunderground v.1.15,2013-04-05 18:18:00,
2013-04-05 14:19:00,57.0,18.5,29.71,ENE,68,4.0,10.0,22,0.00,,,0.00,Wunderground v.1.15,2013-04-05 18:19:00,
2013-04-05 14:21:00,57.0,18.5,29.71,NW,319,5.0,9.0,22,0.00,,,0.00,Wunderground v.1.15,2013-04-05 18:21:00,
2013-04-05 14:23:00,57.2,19.7,29.71,North,354,5.0,9.0,23,0.00,,,0.00,Wunderground v.1.15,2013-04-05 18:23:00,
2013-04-05 14:24:00,57.4,17.7,29.71,North,3,5.0,9.0,21,0.00,,,0.00,Wunderground v.1.15,2013-04-05 18:24:00,
2013-04-05 14:26:00,57.5,19.9,29.71,North,360,5.0,9.0,23,0.00,,,0.00,Wunderground v.1.15,2013-04-05 18:26:00,
2013-04-05 14:28:00,57.3,17.6,29.71,North,349,3.0,12.0,21,0.00,,,0.00,Wunderground v.1.15,2013-04-05 18:28:00,
2013-04-05 14:30:00,57.2,18.6,29.70,NNW,345,10.0,12.0,22,0.00,,,0.00,Wunderground v.1.15,2013-04-05 18:30:00,
2013-04-05 14:33:00,57.1,17.5,29.70,ENE,70,6.0,16.0,21,0.00,,,0.00,Wunderground v.1.15,2013-04-05 18:33:00,
2013-04-05 14:35:00,57.2,17.6,29.70,East,79,3.0,16.0,21,0.00,,,0.00,Wunderground v.1.15,2013-04-05 18:35:00,
2013-04-05 14:39:00,57.6,17.9,29.70,NE,51,4.0,16.0,21,0.00,,,0.00,Wunderground v.1.15,2013-04-05 18:39:00,
2013-04-05 14:40:00,57.8,19.1,29.70,NE,53,7.0,7.0,22,0.00,,,0.00,Wunderground v.1.15,2013-04-05 18:40:00,
2013-04-05 14:45:00,58.1,18.3,29.70,NE,40,2.0,9.0,21,0.00,,,0.00,Wunderground v.1.15,2013-04-05 18:45:00,
2013-04-05 14:47:00,58.2,17.3,29.70,NNW,329,3.0,9.0,20,0.00,,,0.00,Wunderground v.1.15,2013-04-05 18:47:00,
2013-04-05 14:50:00,58.3,18.5,29.70,NNW,330,6.0,6.0,21,0.00,,,0.00,Wunderground v.1.15,2013-04-05 18:50:00,
2013-04-05 14:52:00,58.4,17.4,29.70,NNW,345,5.0,7.0,20,0.00,,,0.00,Wunderground v.1.15,2013-04-05 18:52:00,
2013-04-05 14:55:00,58.6,18.7,29.70,NW,316,12.0,12.0,21,0.00,,,0.00,Wunderground v.1.15,2013-04-05 18:55:00,
2013-04-05 14:56:00,58.6,18.7,29.70,NNE,15,9.0,14.0,21,0.00,,,0.00,Wunderground v.1.15,2013-04-05 18:56:00,
2013-04-05 14:57:00,58.5,18.6,29.70,NE,50,10.0,14.0,21,0.00,,,0.00,Wunderground v.1.15,2013-04-05 18:57:00,
2013-04-05 14:58:00,58.4,18.6,29.70,NNE,27,6.0,14.0,21,0.00,,,0.00,Wunderground v.1.15,2013-04-05 18:58:00,
2013-04-05 15:00:00,58.1,19.4,29.70,NE,50,4.0,7.0,22,0.00,,,0.00,Wunderground v.1.15,2013-04-05 19:00:00,
2013-04-05 15:02:00,58.3,19.6,29.70,ENE,61,5.0,12.0,22,0.00,,,0.00,Wunderground v.1.15,2013-04-05 19:02:00,
2013-04-05 15:03:00,58.3,20.6,29.70,North,11,8.0,12.0,23,0.00,,,0.00,Wunderground v.1.15,2013-04-05 19:03:00,
2013-04-05 15:07:00,58.4,21.7,29.70,NW,321,5.0,12.0,24,0.00,,,0.00,Wunderground v.1.15,2013-04-05 19:07:00,
2013-04-05 15:09:00,58.5,20.8,29.70,East,92,6.0,12.0,23,0.00,,,0.00,Wunderground v.1.15,2013-04-05 19:09:00,
2013-04-05 15:13:00,58.7,19.9,29.70,WNW,287,1.0,9.0,22,0.00,,,0.00,Wunderground v.1.15,2013-04-05 19:13:00,
2013-04-05 15:14:00,58.8,21.0,29.69,NNE,15,6.0,9.0,23,0.00,,,0.00,Wunderground v.1.15,2013-04-05 19:14:00,
2013-04-05 15:18:00,59.0,20.2,29.69,ENE,62,3.0,9.0,22,0.00,,,0.00,Wunderground v.1.15,2013-04-05 19:18:00,
2013-04-05 15:20:00,59.2,21.4,29.69,ENE,70,2.0,4.0,23,0.00,,,0.00,Wunderground v.1.15,2013-04-05 19:20:00,
2013-04-05 15:23:00,59.9,22.0,29.69,North,6,4.0,7.0,23,0.00,,,0.00,Wunderground v.1.15,2013-04-05 19:23:00,
2013-04-05 15:25:00,59.9,20.9,29.69,NNW,335,5.0,8.0,22,0.00,,,0.00,Wunderground v.1.15,2013-04-05 19:25:00,
2013-04-05 15:28:00,59.5,21.6,29.69,NNE,15,7.0,12.0,23,0.00,,,0.00,Wunderground v.1.15,2013-04-05 19:28:00,
2013-04-05 15:30:00,59.3,20.4,29.69,NE,45,4.0,12.0,22,0.00,,,0.00,Wunderground v.1.15,2013-04-05 19:30:00,
2013-04-05 15:32:00,59.2,21.4,29.69,NE,56,2.0,6.0,23,0.00,,,0.00,Wunderground v.1.15,2013-04-05 19:32:00,
2013-04-05 15:33:00,59.3,22.5,29.69,NNW,341,9.0,10.0,24,0.00,,,0.00,Wunderground v.1.15,2013-04-05 19:33:00,
2013-04-05 15:35:00,59.3,22.5,29.69,North,349,11.0,11.0,24,0.00,,,0.00,Wunderground v.1.15,2013-04-05 19:35:00,
2013-04-05 15:37:00,59.2,23.4,29.69,North,356,6.0,11.0,25,0.00,,,0.00,Wunderground v.1.15,2013-04-05 19:37:00,
2013-04-05 15:39:00,59.2,23.4,29.69,NNW,333,14.0,14.0,25,0.00,,,0.00,Wunderground v.1.15,2013-04-05 19:39:00,
2013-04-05 15:40:00,59.3,22.5,29.69,North,356,6.0,11.0,24,0.00,,,0.00,Wunderground v.1.15,2013-04-05 19:40:00,
2013-04-05 15:41:00,59.3,22.5,29.69,NW,311,7.0,11.0,24,0.00,,,0.00,Wunderground v.1.15,2013-04-05 19:41:00,
2013-04-05 15:42:00,59.1,22.3,29.68,North,352,13.0,13.0,24,0.00,,,0.00,Wunderground v.1.15,2013-04-05 19:42:00,
2013-04-05 15:44:00,59.0,23.2,29.68,NNW,346,13.0,16.0,25,0.00,,,0.00,Wunderground v.1.15,2013-04-05 19:44:00,
2013-04-05 15:45:00,58.7,22.0,29.68,NW,316,9.0,21.0,24,0.00,,,0.00,Wunderground v.1.15,2013-04-05 19:45:00,
2013-04-05 15:46:00,58.6,21.9,29.68,NNW,332,6.0,21.0,24,0.00,,,0.00,Wunderground v.1.15,2013-04-05 19:46:00,
2013-04-05 15:48:00,58.3,21.6,29.68,NW,313,10.0,21.0,24,0.00,,,0.00,Wunderground v.1.15,2013-04-05 19:48:00,
2013-04-05 15:50:00,58.4,23.6,29.68,NNW,330,5.0,9.0,26,0.00,,,0.00,Wunderground v.1.15,2013-04-05 19:50:00,
2013-04-05 15:51:00,58.5,22.8,29.69,NNW,336,5.0,9.0,25,0.00,,,0.00,Wunderground v.1.15,2013-04-05 19:51:00,
2013-04-05 15:53:00,59.0,24.1,29.68,ENE,61,4.0,9.0,26,0.00,,,0.00,Wunderground v.1.15,2013-04-05 19:53:00,
2013-04-05 15:55:00,59.5,23.6,29.68,NE,44,7.0,9.0,25,0.00,,,0.00,Wunderground v.1.15,2013-04-05 19:55:00,
2013-04-05 15:57:00,59.7,23.8,29.68,North,356,3.0,12.0,25,0.00,,,0.00,Wunderground v.1.15,2013-04-05 19:57:00,
2013-04-05 15:58:00,59.8,23.9,29.68,NNE,31,6.0,12.0,25,0.00,,,0.00,Wunderground v.1.15,2013-04-05 19:58:00,
2013-04-05 16:01:00,59.8,23.9,29.68,North,5,4.0,8.0,25,0.00,,,0.00,Wunderground v.1.15,2013-04-05 20:01:00,
2013-04-05 16:02:00,59.7,22.8,29.68,NE,47,7.0,8.0,24,0.00,,,0.00,Wunderground v.1.15,2013-04-05 20:02:00,
2013-04-05 16:03:00,59.7,22.8,29.68,NNE,25,12.0,13.0,24,0.00,,,0.00,Wunderground v.1.15,2013-04-05 20:03:00,
2013-04-05 16:06:00,59.5,23.6,29.67,NNW,335,7.0,13.0,25,0.00,,,0.00,Wunderground v.1.15,2013-04-05 20:06:00,
2013-04-05 16:08:00,59.5,22.6,29.67,NE,37,2.0,13.0,24,0.00,,,0.00,Wunderground v.1.15,2013-04-05 20:08:00,
2013-04-05 16:11:00,59.4,23.5,29.68,NNE,27,11.0,11.0,25,0.00,,,0.00,Wunderground v.1.15,2013-04-05 20:11:00,
2013-04-05 16:13:00,59.3,23.4,29.68,NNE,30,7.0,11.0,25,0.00,,,0.00,Wunderground v.1.15,2013-04-05 20:13:00,
2013-04-05 16:16:00,58.8,23.0,29.68,NNW,337,6.0,15.0,25,0.00,,,0.00,Wunderground v.1.15,2013-04-05 20:16:00,
2013-04-05 16:18:00,58.6,23.8,29.68,NNE,23,10.0,15.0,26,0.00,,,0.00,Wunderground v.1.15,2013-04-05 20:18:00,
2013-04-05 16:22:00,58.3,22.6,29.68,NNE,18,5.0,15.0,25,0.00,,,0.00,Wunderground v.1.15,2013-04-05 20:22:00,
2013-04-05 16:23:00,58.3,23.5,29.68,NW,319,2.0,15.0,26,0.00,,,0.00,Wunderground v.1.15,2013-04-05 20:23:00,
2013-04-05 16:24:00,58.4,24.5,29.68,WNW,295,3.0,15.0,27,0.00,,,0.00,Wunderground v.1.15,2013-04-05 20:24:00,
2013-04-05 16:27:00,58.5,22.8,29.68,NW,306,4.0,15.0,25,0.00,,,0.00,Wunderground v.1.15,2013-04-05 20:27:00,
2013-04-05 16:28:00,58.6,23.8,29.68,North,352,5.0,15.0,26,0.00,,,0.00,Wunderground v.1.15,2013-04-05 20:28:00,
2013-04-05 16:29:00,58.7,23.9,29.68,NNW,345,10.0,15.0,26,0.00,,,0.00,Wunderground v.1.15,2013-04-05 20:29:00,
2013-04-05 16:33:00,58.6,21.9,29.68,NNE,18,12.0,16.0,24,0.00,,,0.00,Wunderground v.1.15,2013-04-05 20:33:00,
2013-04-05 16:34:00,58.5,20.8,29.68,ESE,108,6.0,18.0,23,0.00,,,0.00,Wunderground v.1.15,2013-04-05 20:34:00,
2013-04-05 16:38:00,58.0,21.4,29.68,North,9,7.0,18.0,24,0.00,,,0.00,Wunderground v.1.15,2013-04-05 20:38:00,
2013-04-05 16:39:00,58.1,21.4,29.69,ENE,61,8.0,18.0,24,0.00,,,0.00,Wunderground v.1.15,2013-04-05 20:39:00,
2013-04-05 16:40:00,58.1,20.4,29.68,NNE,30,7.0,13.0,23,0.00,,,0.00,Wunderground v.1.15,2013-04-05 20:40:00,
2013-04-05 16:43:00,58.2,20.5,29.68,North,349,19.0,25.0,23,0.00,,,0.00,Wunderground v.1.15,2013-04-05 20:43:00,
2013-04-05 16:44:00,58.1,21.4,29.69,ENE,67,4.0,25.0,24,0.00,,,0.00,Wunderground v.1.15,2013-04-05 20:44:00,
2013-04-05 16:45:00,58.1,21.4,29.68,NNW,330,5.0,25.0,24,0.00,,,0.00,Wunderground v.1.15,2013-04-05 20:45:00,
2013-04-05 16:48:00,58.1,21.4,29.69,North,354,6.0,25.0,24,0.00,,,0.00,Wunderground v.1.15,2013-04-05 20:48:00,
2013-04-05 16:49:00,58.1,21.4,29.69,NNE,21,7.0,25.0,24,0.00,,,0.00,Wunderground v.1.15,2013-04-05 20:49:00,
2013-04-05 16:50:00,58.1,21.4,29.69,North,10,7.0,8.0,24,0.00,,,0.00,Wunderground v.1.15,2013-04-05 20:50:00,
2013-04-05 16:51:00,58.2,20.5,29.69,North,352,8.0,8.0,23,0.00,,,0.00,Wunderground v.1.15,2013-04-05 20:51:00,
2013-04-05 16:53:00,58.1,20.4,29.68,NNW,335,10.0,22.0,23,0.00,,,0.00,Wunderground v.1.15,2013-04-05 20:53:00,
2013-04-05 16:55:00,57.9,21.3,29.69,NNW,340,4.0,22.0,24,0.00,,,0.00,Wunderground v.1.15,2013-04-05 20:55:00,
2013-04-05 16:56:00,57.9,21.3,29.69,North,352,15.0,22.0,24,0.00,,,0.00,Wunderground v.1.15,2013-04-05 20:56:00,
2013-04-05 16:57:00,57.9,20.3,29.69,NNW,337,11.0,22.0,23,0.00,,,0.00,Wunderground v.1.15,2013-04-05 20:57:00,
2013-04-05 16:58:00,57.8,22.2,29.69,North,352,6.0,22.0,25,0.00,,,0.00,Wunderground v.1.15,2013-04-05 20:58:00,
2013-04-05 17:00:00,57.7,22.1,29.69,NNW,343,10.0,12.0,25,0.00,,,0.00,Wunderground v.1.15,2013-04-05 21:00:00,
2013-04-05 17:01:00,57.6,21.0,29.69,NW,325,6.0,17.0,24,0.00,,,0.00,Wunderground v.1.15,2013-04-05 21:01:00,
2013-04-05 17:02:00,57.6,21.0,29.69,North,350,12.0,17.0,24,0.00,,,0.00,Wunderground v.1.15,2013-04-05 21:02:00,
2013-04-05 17:03:00,57.4,20.9,29.69,NNE,24,14.0,17.0,24,0.00,,,0.00,Wunderground v.1.15,2013-04-05 21:03:00,
2013-04-05 17:05:00,57.2,20.7,29.69,NNE,18,5.0,17.0,24,0.00,,,0.00,Wunderground v.1.15,2013-04-05 21:05:00,
2013-04-05 17:07:00,57.2,20.7,29.69,NW,325,10.0,17.0,24,0.00,,,0.00,Wunderground v.1.15,2013-04-05 21:07:00,
2013-04-05 17:09:00,57.2,21.6,29.70,NNW,347,4.0,17.0,25,0.00,,,0.00,Wunderground v.1.15,2013-04-05 21:09:00,
2013-04-05 17:10:00,57.3,21.7,29.70,North,360,3.0,12.0,25,0.00,,,0.00,Wunderground v.1.15,2013-04-05 21:10:00,
2013-04-05 17:12:00,57.5,21.9,29.70,NNW,343,4.0,12.0,25,0.00,,,0.00,Wunderground v.1.15,2013-04-05 21:12:00,
2013-04-05 17:13:00,57.5,21.9,29.70,NNW,337,6.0,12.0,25,0.00,,,0.00,Wunderground v.1.15,2013-04-05 21:13:00,
2013-04-05 17:15:00,57.8,22.2,29.70,NNW,329,3.0,12.0,25,0.00,,,0.00,Wunderground v.1.15,2013-04-05 21:15:00,
2013-04-05 17:18:00,57.6,22.0,29.70,North,3,9.0,14.0,25,0.00,,,0.00,Wunderground v.1.15,2013-04-05 21:18:00,
2013-04-05 17:20:00,57.2,22.6,29.70,NE,50,3.0,7.0,26,0.00,,,0.00,Wunderground v.1.15,2013-04-05 21:20:00,
2013-04-05 17:21:00,57.2,22.6,29.70,NNW,327,8.0,14.0,26,0.00,,,0.00,Wunderground v.1.15,2013-04-05 21:21:00,
2013-04-05 17:23:00,57.2,22.6,29.70,NNW,348,6.0,14.0,26,0.00,,,0.00,Wunderground v.1.15,2013-04-05 21:23:00,
2013-04-05 17:25:00,57.1,21.6,29.70,North,349,6.0,14.0,25,0.00,,,0.00,Wunderground v.1.15,2013-04-05 21:25:00,
2013-04-05 17:26:00,57.1,22.5,29.70,NNE,22,5.0,14.0,26,0.00,,,0.00,Wunderground v.1.15,2013-04-05 21:26:00,
2013-04-05 17:29:00,57.3,22.7,29.70,NE,43,3.0,14.0,26,0.00,,,0.00,Wunderground v.1.15,2013-04-05 21:29:00,
2013-04-05 17:30:00,57.4,21.8,29.70,NE,41,8.0,10.0,25,0.00,,,0.00,Wunderground v.1.15,2013-04-05 21:30:00,
2013-04-05 17:32:00,57.3,21.7,29.70,East,100,6.0,10.0,25,0.00,,,0.00,Wunderground v.1.15,2013-04-05 21:32:00,
2013-04-05 17:34:00,57.1,22.5,29.70,NNW,335,5.0,10.0,26,0.00,,,0.00,Wunderground v.1.15,2013-04-05 21:34:00,
2013-04-05 17:35:00,57.1,22.5,29.70,NNE,13,7.0,10.0,26,0.00,,,0.00,Wunderground v.1.15,2013-04-05 21:35:00,
2013-04-05 17:38:00,57.1,22.5,29.70,North,356,7.0,10.0,26,0.00,,,0.00,Wunderground v.1.15,2013-04-05 21:38:00,
2013-04-05 17:39:00,57.0,22.4,29.71,NNE,25,5.0,10.0,26,0.00,,,0.00,Wunderground v.1.15,2013-04-05 21:39:00,
2013-04-05 17:40:00,57.0,21.5,29.71,NE,51,6.0,10.0,25,0.00,,,0.00,Wunderground v.1.15,2013-04-05 21:40:00,
2013-04-05 17:44:00,56.5,21.1,29.71,NNE,18,5.0,13.0,25,0.00,,,0.00,Wunderground v.1.15,2013-04-05 21:44:00,
2013-04-05 17:45:00,56.4,21.0,29.71,North,11,8.0,13.0,25,0.00,,,0.00,Wunderground v.1.15,2013-04-05 21:45:00,
2013-04-05 17:47:00,56.2,20.8,29.72,North,353,24.0,24.0,25,0.00,,,0.00,Wunderground v.1.15,2013-04-05 21:47:00,
2013-04-05 17:49:00,55.6,20.3,29.72,NE,53,10.0,26.0,25,0.00,,,0.00,Wunderground v.1.15,2013-04-05 21:49:00,
2013-04-05 17:50:00,55.5,20.2,29.72,NW,309,10.0,10.0,25,0.00,,,0.00,Wunderground v.1.15,2013-04-05 21:50:00,
2013-04-05 17:52:00,55.4,19.2,29.72,NNE,18,4.0,10.0,24,0.00,,,0.00,Wunderground v.1.15,2013-04-05 21:52:00,
2013-04-05 17:54:00,55.3,19.1,29.72,NNW,348,11.0,13.0,24,0.00,,,0.00,Wunderground v.1.15,2013-04-05 21:54:00,
2013-04-05 17:56:00,55.3,19.1,29.72,NNE,26,7.0,13.0,24,0.00,,,0.00,Wunderground v.1.15,2013-04-05 21:56:00,
2013-04-05 17:57:00,55.2,19.9,29.73,NNW,335,6.0,13.0,25,0.00,,,0.00,Wunderground v.1.15,2013-04-05 21:57:00,
2013-04-05 17:59:00,55.2,19.9,29.73,NE,39,5.0,13.0,25,0.00,,,0.00,Wunderground v.1.15,2013-04-05 21:59:00,
2013-04-05 18:01:00,55.1,18.9,29.73,NNW,340,5.0,11.0,24,0.00,,,0.00,Wunderground v.1.15,2013-04-05 22:01:00,
2013-04-05 18:02:00,55.1,19.9,29.73,NNE,18,4.0,11.0,25,0.00,,,0.00,Wunderground v.1.15,2013-04-05 22:02:00,
2013-04-05 18:05:00,55.1,18.9,29.73,North,1,6.0,12.0,24,0.00,,,0.00,Wunderground v.1.15,2013-04-05 22:05:00,
2013-04-05 18:06:00,55.1,18.9,29.73,NNW,337,9.0,12.0,24,0.00,,,0.00,Wunderground v.1.15,2013-04-05 22:06:00,
2013-04-05 18:07:00,55.0,18.8,29.73,NNW,345,7.0,12.0,24,0.00,,,0.00,Wunderground v.1.15,2013-04-05 22:07:00,
2013-04-05 18:10:00,54.8,15.6,29.73,North,352,11.0,11.0,21,0.00,,,0.00,Wunderground v.1.15,2013-04-05 22:10:00,
2013-04-05 18:12:00,54.5,16.4,29.73,NE,34,7.0,11.0,22,0.00,,,0.00,Wunderground v.1.15,2013-04-05 22:12:00,
2013-04-05 18:15:00,54.1,16.0,29.74,NNW,342,3.0,20.0,22,0.00,,,0.00,Wunderground v.1.15,2013-04-05 22:15:00,
2013-04-05 18:17:00,53.9,15.9,29.74,NE,37,12.0,21.0,22,0.00,,,0.00,Wunderground v.1.15,2013-04-05 22:17:00,
2013-04-05 18:18:00,53.8,15.8,29.74,NW,320,11.0,21.0,22,0.00,,,0.00,Wunderground v.1.15,2013-04-05 22:18:00,
2013-04-05 18:20:00,53.6,15.6,29.74,NNW,346,20.0,23.0,22,0.00,,,0.00,Wunderground v.1.15,2013-04-05 22:20:00,
2013-04-05 18:22:00,53.4,14.4,29.74,NNW,339,5.0,23.0,21,0.00,,,0.00,Wunderground v.1.15,2013-04-05 22:22:00,
2013-04-05 18:23:00,53.4,14.4,29.74,North,352,9.0,23.0,21,0.00,,,0.00,Wunderground v.1.15,2013-04-05 22:23:00,
2013-04-05 18:25:00,53.3,15.4,29.74,NNE,18,6.0,23.0,22,0.00,,,0.00,Wunderground v.1.15,2013-04-05 22:25:00,
2013-04-05 18:28:00,53.2,15.3,29.75,NNW,335,5.0,23.0,22,0.00,,,0.00,Wunderground v.1.15,2013-04-05 22:28:00,
2013-04-05 18:30:00,53.0,16.1,29.75,NNE,12,6.0,9.0,23,0.00,,,0.00,Wunderground v.1.15,2013-04-05 22:30:00,
2013-04-05 18:33:00,52.8,16.0,29.75,NNW,328,11.0,13.0,23,0.00,,,0.00,Wunderground v.1.15,2013-04-05 22:33:00,
2013-04-05 18:36:00,52.7,15.9,29.75,NW,316,13.0,13.0,23,0.00,,,0.00,Wunderground v.1.15,2013-04-05 22:36:00,
2013-04-05 18:38:00,52.5,15.7,29.76,NNE,13,10.0,13.0,23,0.00,,,0.00,Wunderground v.1.15,2013-04-05 22:38:00,
2013-04-05 18:39:00,52.4,15.6,29.76,NNW,345,7.0,13.0,23,0.00,,,0.00,Wunderground v.1.15,2013-04-05 22:39:00,
2013-04-05 18:42:00,52.2,15.5,29.76,NNW,347,11.0,14.0,23,0.00,,,0.00,Wunderground v.1.15,2013-04-05 22:42:00,
2013-04-05 18:44:00,52.1,15.4,29.76,NNW,330,5.0,14.0,23,0.00,,,0.00,Wunderground v.1.15,2013-04-05 22:44:00,
2013-04-05 18:45:00,52.1,15.4,29.76,NNW,336,9.0,14.0,23,0.00,,,0.00,Wunderground v.1.15,2013-04-05 22:45:00,
2013-04-05 18:47:00,52.0,16.3,29.76,East,83,2.0,14.0,24,0.00,,,0.00,Wunderground v.1.15,2013-04-05 22:47:00,
2013-04-05 18:49:00,51.8,16.1,29.76,North,349,9.0,14.0,24,0.00,,,0.00,Wunderground v.1.15,2013-04-05 22:49:00,
2013-04-05 18:50:00,51.8,16.1,29.76,WNW,293,12.0,18.0,24,0.00,,,0.00,Wunderground v.1.15,2013-04-05 22:50:00,
2013-04-05 18:52:00,51.6,16.9,29.77,NNW,336,5.0,18.0,25,0.00,,,0.00,Wunderground v.1.15,2013-04-05 22:52:00,
2013-04-05 18:54:00,51.4,16.7,29.77,NW,311,6.0,18.0,25,0.00,,,0.00,Wunderground v.1.15,2013-04-05 22:54:00,
2013-04-05 18:55:00,51.3,16.6,29.77,NNW,333,9.0,18.0,25,0.00,,,0.00,Wunderground v.1.15,2013-04-05 22:55:00,
2013-04-05 18:57:00,51.1,17.4,29.77,ENE,67,6.0,18.0,26,0.00,,,0.00,Wunderground v.1.15,2013-04-05 22:57:00,
2013-04-05 18:59:00,50.9,17.2,29.77,NNW,348,3.0,18.0,26,0.00,,,0.00,Wunderground v.1.15,2013-04-05 22:59:00,
2013-04-05 19:00:00,50.8,17.1,29.77,NNW,347,8.0,9.0,26,0.00,,,0.00,Wunderground v.1.15,2013-04-05 23:00:00,
2013-04-05 19:02:00,50.6,17.8,29.77,North,8,2.0,11.0,27,0.00,,,0.00,Wunderground v.1.15,2013-04-05 23:02:00,
2013-04-05 19:04:00,50.4,17.6,29.77,NNW,340,7.0,11.0,27,0.00,,,0.00,Wunderground v.1.15,2013-04-05 23:04:00,
2013-04-05 19:05:00,50.4,17.6,29.77,North,355,10.0,11.0,27,0.00,,,0.00,Wunderground v.1.15,2013-04-05 23:05:00,
2013-04-05 19:07:00,50.1,18.2,29.77,NE,51,7.0,11.0,28,0.00,,,0.00,Wunderground v.1.15,2013-04-05 23:07:00,
2013-04-05 19:10:00,49.8,18.8,29.77,North,354,11.0,11.0,29,0.00,,,0.00,Wunderground v.1.15,2013-04-05 23:10:00,
2013-04-05 19:12:00,49.5,19.3,29.77,ENE,70,10.0,14.0,30,0.00,,,0.00,Wunderground v.1.15,2013-04-05 23:12:00,
2013-04-05 19:15:00,49.4,19.2,29.78,North,349,4.0,14.0,30,0.00,,,0.00,Wunderground v.1.15,2013-04-05 23:15:00,
2013-04-05 19:16:00,49.3,19.1,29.78,North,6,5.0,14.0,30,0.00,,,0.00,Wunderground v.1.15,2013-04-05 23:16:00,
2013-04-05 19:18:00,49.1,19.7,29.77,NNE,13,15.0,15.0,31,0.00,,,0.00,Wunderground v.1.15,2013-04-05 23:18:00,
2013-04-05 19:20:00,49.0,19.6,29.78,North,352,9.0,15.0,31,0.00,,,0.00,Wunderground v.1.15,2013-04-05 23:20:00,
2013-04-05 19:21:00,49.0,19.6,29.78,NNW,331,3.0,7.0,31,0.00,,,0.00,Wunderground v.1.15,2013-04-05 23:21:00,
2013-04-05 19:23:00,48.8,19.5,29.78,NNW,340,8.0,12.0,31,0.00,,,0.00,Wunderground v.1.15,2013-04-05 23:23:00,
2013-04-05 19:25:00,48.7,20.1,29.78,NNW,329,15.0,15.0,32,0.00,,,0.00,Wunderground v.1.15,2013-04-05 23:25:00,
2013-04-05 19:26:00,48.7,20.1,29.78,North,350,15.0,18.0,32,0.00,,,0.00,Wunderground v.1.15,2013-04-05 23:26:00,
2013-04-05 19:28:00,48.7,20.1,29.78,North,11,9.0,18.0,32,0.00,,,0.00,Wunderground v.1.15,2013-04-05 23:28:00,
2013-04-05 19:30:00,48.6,20.0,29.78,NNW,345,8.0,10.0,32,0.00,,,0.00,Wunderground v.1.15,2013-04-05 23:30:00,
2013-04-05 19:32:00,48.5,19.9,29.78,North,352,7.0,12.0,32,0.00,,,0.00,Wunderground v.1.15,2013-04-05 23:32:00,
2013-04-05 19:33:00,48.5,19.9,29.78,NNW,332,16.0,16.0,32,0.00,,,0.00,Wunderground v.1.15,2013-04-05 23:33:00,
2013-04-05 19:35:00,48.4,20.6,29.78,NNE,16,10.0,16.0,33,0.00,,,0.00,Wunderground v.1.15,2013-04-05 23:35:00,
2013-04-05 19:36:00,48.4,20.6,29.78,North,355,8.0,16.0,33,0.00,,,0.00,Wunderground v.1.15,2013-04-05 23:36:00,
2013-04-05 19:37:00,48.3,20.5,29.78,NNW,341,16.0,16.0,33,0.00,,,0.00,Wunderground v.1.15,2013-04-05 23:37:00,
2013-04-05 19:38:00,48.3,20.5,29.78,NE,39,6.0,16.0,33,0.00,,,0.00,Wunderground v.1.15,2013-04-05 23:38:00,
2013-04-05 19:40:00,48.1,21.0,29.78,NNE,18,11.0,13.0,34,0.00,,,0.00,Wunderground v.1.15,2013-04-05 23:40:00,
2013-04-05 19:41:00,48.0,20.9,29.78,NNE,18,7.0,15.0,34,0.00,,,0.00,Wunderground v.1.15,2013-04-05 23:41:00,
2013-04-05 19:42:00,48.0,20.9,29.78,NNW,345,9.0,15.0,34,0.00,,,0.00,Wunderground v.1.15,2013-04-05 23:42:00,
2013-04-05 19:43:00,47.9,20.8,29.78,NNE,25,5.0,15.0,34,0.00,,,0.00,Wunderground v.1.15,2013-04-05 23:43:00,
2013-04-05 19:46:00,47.7,20.7,29.79,NW,325,4.0,15.0,34,0.00,,,0.00,Wunderground v.1.15,2013-04-05 23:46:00,
2013-04-05 19:47:00,47.7,21.3,29.79,North,10,6.0,15.0,35,0.00,,,0.00,Wunderground v.1.15,2013-04-05 23:47:00,
2013-04-05 19:48:00,47.6,20.6,29.78,NNW,331,12.0,15.0,34,0.00,,,0.00,Wunderground v.1.15,2013-04-05 23:48:00,
2013-04-05 19:52:00,47.6,21.3,29.79,North,10,13.0,13.0,35,0.00,,,0.00,Wunderground v.1.15,2013-04-05 23:52:00,
2013-04-05 19:53:00,47.6,20.6,29.79,NNW,343,5.0,17.0,34,0.00,,,0.00,Wunderground v.1.15,2013-04-05 23:53:00,
2013-04-05 19:57:00,47.4,20.4,29.80,North,349,17.0,17.0,34,0.00,,,0.00,Wunderground v.1.15,2013-04-05 23:57:00,
2013-04-05 19:58:00,47.4,20.4,29.80,NE,49,9.0,17.0,34,0.00,,,0.00,Wunderground v.1.15,2013-04-05 23:58:00,
2013-04-05 20:02:00,47.3,21.0,29.80,NNE,32,5.0,14.0,35,0.00,,,0.00,Wunderground v.1.15,2013-04-06 00:02:00,
2013-04-05 20:03:00,47.2,20.9,29.80,North,360,14.0,14.0,35,0.00,,,0.00,Wunderground v.1.15,2013-04-06 00:03:00,
2013-04-05 20:04:00,47.2,20.9,29.80,NNE,12,6.0,14.0,35,0.00,,,0.00,Wunderground v.1.15,2013-04-06 00:04:00,
2013-04-05 20:08:00,47.0,20.7,29.81,NNW,348,8.0,15.0,35,0.00,,,0.00,Wunderground v.1.15,2013-04-06 00:08:00,
2013-04-05 20:09:00,46.9,21.3,29.81,North,356,8.0,15.0,36,0.00,,,0.00,Wunderground v.1.15,2013-04-06 00:09:00,
2013-04-05 20:13:00,46.8,21.2,29.81,NNW,330,13.0,18.0,36,0.00,,,0.00,Wunderground v.1.15,2013-04-06 00:13:00,
2013-04-05 20:14:00,46.8,21.2,29.81,NNW,348,9.0,19.0,36,0.00,,,0.00,Wunderground v.1.15,2013-04-06 00:14:00,
2013-04-05 20:18:00,46.7,21.8,29.82,NNW,341,12.0,19.0,37,0.00,,,0.00,Wunderground v.1.15,2013-04-06 00:18:00,
2013-04-05 20:19:00,46.6,21.7,29.82,NNW,337,13.0,19.0,37,0.00,,,0.00,Wunderground v.1.15,2013-04-06 00:19:00,
2013-04-05 20:23:00,46.4,22.1,29.82,NW,314,7.0,13.0,38,0.00,,,0.00,Wunderground v.1.15,2013-04-06 00:23:00,
2013-04-05 20:24:00,46.3,22.0,29.82,NNW,339,10.0,13.0,38,0.00,,,0.00,Wunderground v.1.15,2013-04-06 00:24:00,
2013-04-05 20:28:00,46.0,22.4,29.82,NNW,345,10.0,17.0,39,0.00,,,0.00,Wunderground v.1.15,2013-04-06 00:28:00,
2013-04-05 20:29:00,46.0,22.4,29.83,North,349,16.0,22.0,39,0.00,,,0.00,Wunderground v.1.15,2013-04-06 00:29:00,
2013-04-05 20:33:00,45.7,22.1,29.83,NW,316,9.0,13.0,39,0.00,,,0.00,Wunderground v.1.15,2013-04-06 00:33:00,
2013-04-05 20:34:00,45.7,22.7,29.83,NNE,16,7.0,13.0,40,0.00,,,0.00,Wunderground v.1.15,2013-04-06 00:34:00,
2013-04-05 20:38:00,45.3,22.4,29.83,NNW,335,7.0,15.0,40,0.00,,,0.00,Wunderground v.1.15,2013-04-06 00:38:00,
2013-04-05 20:39:00,45.2,22.3,29.84,NE,49,6.0,15.0,40,0.00,,,0.00,Wunderground v.1.15,2013-04-06 00:39:00,
2013-04-05 20:40:00,45.2,22.3,29.84,North,360,13.0,15.0,40,0.00,,,0.00,Wunderground v.1.15,2013-04-06 00:40:00,
2013-04-05 20:43:00,45.1,22.2,29.84,NNW,333,6.0,16.0,40,0.00,,,0.00,Wunderground v.1.15,2013-04-06 00:43:00,
2013-04-05 20:44:00,45.0,22.7,29.84,NNE,30,8.0,16.0,41,0.00,,,0.00,Wunderground v.1.15,2013-04-06 00:44:00,
2013-04-05 20:45:00,45.0,22.7,29.84,North,358,7.0,16.0,41,0.00,,,0.00,Wunderground v.1.15,2013-04-06 00:45:00,
2013-04-05 20:49:00,44.7,22.4,29.84,NNW,339,9.0,16.0,41,0.00,,,0.00,Wunderground v.1.15,2013-04-06 00:49:00,
2013-04-05 20:50:00,44.6,22.3,29.84,North,5,8.0,18.0,41,0.00,,,0.00,Wunderground v.1.15,2013-04-06 00:50:00,
2013-04-05 20:54:00,44.4,22.1,29.85,NW,320,9.0,18.0,41,0.00,,,0.00,Wunderground v.1.15,2013-04-06 00:54:00,
2013-04-05 20:55:00,44.4,22.1,29.85,North,350,14.0,18.0,41,0.00,,,0.00,Wunderground v.1.15,2013-04-06 00:55:00,
2013-04-05 20:56:00,44.3,22.1,29.85,North,349,7.0,18.0,41,0.00,,,0.00,Wunderground v.1.15,2013-04-06 00:56:00,
2013-04-05 20:57:00,44.2,22.0,29.85,NNE,31,6.0,18.0,41,0.00,,,0.00,Wunderground v.1.15,2013-04-06 00:57:00,
2013-04-05 20:59:00,44.1,22.4,29.85,NNW,338,7.0,18.0,42,0.00,,,0.00,Wunderground v.1.15,2013-04-06 00:59:00,
2013-04-05 21:00:00,44.1,22.4,29.85,North,4,9.0,9.0,42,0.00,,,0.00,Wunderground v.1.15,2013-04-06 01:00:00,
2013-04-05 21:01:00,44.0,22.4,29.85,NE,46,7.0,17.0,42,0.00,,,0.00,Wunderground v.1.15,2013-04-06 01:01:00,
2013-04-05 21:03:00,43.9,22.3,29.85,North,352,11.0,17.0,42,0.00,,,0.00,Wunderground v.1.15,2013-04-06 01:03:00,
2013-04-05 21:04:00,43.8,22.2,29.85,NE,37,9.0,17.0,42,0.00,,,0.00,Wunderground v.1.15,2013-04-06 01:04:00,
2013-04-05 21:05:00,43.8,22.2,29.85,ENE,70,4.0,17.0,42,0.00,,,0.00,Wunderground v.1.15,2013-04-06 01:05:00,
2013-04-05 21:06:00,43.8,22.2,29.85,North,353,13.0,17.0,42,0.00,,,0.00,Wunderground v.1.15,2013-04-06 01:06:00,
2013-04-05 21:08:00,43.7,22.1,29.85,NE,41,6.0,17.0,42,0.00,,,0.00,Wunderground v.1.15,2013-04-06 01:08:00,
2013-04-05 21:09:00,43.6,22.0,29.86,NNE,30,9.0,17.0,42,0.00,,,0.00,Wunderground v.1.15,2013-04-06 01:09:00,
2013-04-05 21:10:00,43.6,22.0,29.85,North,349,11.0,11.0,42,0.00,,,0.00,Wunderground v.1.15,2013-04-06 01:10:00,
2013-04-05 21:12:00,43.5,22.5,29.86,North,8,4.0,19.0,43,0.00,,,0.00,Wunderground v.1.15,2013-04-06 01:12:00,
2013-04-05 21:13:00,43.5,22.5,29.86,NNE,32,5.0,19.0,43,0.00,,,0.00,Wunderground v.1.15,2013-04-06 01:13:00,
2013-04-05 21:14:00,43.4,22.4,29.86,NNE,22,4.0,19.0,43,0.00,,,0.00,Wunderground v.1.15,2013-04-06 01:14:00,
2013-04-05 21:15:00,43.4,22.4,29.86,ENE,65,6.0,19.0,43,0.00,,,0.00,Wunderground v.1.15,2013-04-06 01:15:00,
2013-04-05 21:17:00,43.3,22.3,29.86,East,93,5.0,19.0,43,0.00,,,0.00,Wunderground v.1.15,2013-04-06 01:17:00,
2013-04-05 21:18:00,43.3,22.3,29.86,NNE,27,9.0,19.0,43,0.00,,,0.00,Wunderground v.1.15,2013-04-06 01:18:00,
2013-04-05 21:19:00,43.2,22.2,29.86,NNW,340,8.0,19.0,43,0.00,,,0.00,Wunderground v.1.15,2013-04-06 01:19:00,
2013-04-05 21:20:00,43.1,22.1,29.86,NNE,16,8.0,10.0,43,0.00,,,0.00,Wunderground v.1.15,2013-04-06 01:20:00,
2013-04-05 21:22:00,43.0,22.5,29.86,NNW,347,5.0,10.0,44,0.00,,,0.00,Wunderground v.1.15,2013-04-06 01:22:00,
2013-04-05 21:23:00,43.0,22.5,29.86,NNW,345,7.0,10.0,44,0.00,,,0.00,Wunderground v.1.15,2013-04-06 01:23:00,
2013-04-05 21:24:00,42.9,22.5,29.86,NNW,340,6.0,10.0,44,0.00,,,0.00,Wunderground v.1.15,2013-04-06 01:24:00,
2013-04-05 21:26:00,42.8,22.4,29.86,NNE,20,11.0,13.0,44,0.00,,,0.00,Wunderground v.1.15,2013-04-06 01:26:00,
2013-04-05 21:28:00,42.8,22.4,29.86,NNW,328,9.0,13.0,44,0.00,,,0.00,Wunderground v.1.15,2013-04-06 01:28:00,
2013-04-05 21:30:00,42.8,22.4,29.86,NNW,346,7.0,20.0,44,0.00,,,0.00,Wunderground v.1.15,2013-04-06 01:30:00,
2013-04-05 21:31:00,42.7,22.8,29.87,North,352,12.0,14.0,45,0.00,,,0.00,Wunderground v.1.15,2013-04-06 01:31:00,
2013-04-05 21:33:00,42.7,22.8,29.86,North,360,11.0,16.0,45,0.00,,,0.00,Wunderground v.1.15,2013-04-06 01:33:00,
2013-04-05 21:36:00,42.6,22.7,29.87,North,6,4.0,16.0,45,0.00,,,0.00,Wunderground v.1.15,2013-04-06 01:36:00,
2013-04-05 21:38:00,42.4,22.5,29.87,NNW,345,4.0,21.0,45,0.00,,,0.00,Wunderground v.1.15,2013-04-06 01:38:00,
2013-04-05 21:41:00,42.3,23.0,29.86,NNW,342,13.0,18.0,46,0.00,,,0.00,Wunderground v.1.15,2013-04-06 01:41:00,
2013-04-05 21:42:00,42.2,22.9,29.87,NNW,338,7.0,18.0,46,0.00,,,0.00,Wunderground v.1.15,2013-04-06 01:42:00,
2013-04-05 21:43:00,42.2,22.9,29.87,North,352,7.0,18.0,46,0.00,,,0.00,Wunderground v.1.15,2013-04-06 01:43:00,
2013-04-05 21:46:00,42.1,23.3,29.87,NE,48,5.0,18.0,47,0.00,,,0.00,Wunderground v.1.15,2013-04-06 01:46:00,
2013-04-05 21:47:00,42.0,23.2,29.87,North,357,5.0,18.0,47,0.00,,,0.00,Wunderground v.1.15,2013-04-06 01:47:00,
2013-04-05 21:48:00,42.0,23.2,29.87,NNW,336,12.0,19.0,47,0.00,,,0.00,Wunderground v.1.15,2013-04-06 01:48:00,
2013-04-05 21:51:00,41.9,23.1,29.87,NW,323,6.0,9.0,47,0.00,,,0.00,Wunderground v.1.15,2013-04-06 01:51:00,
2013-04-05 21:53:00,41.9,23.6,29.87,ENE,65,7.0,16.0,48,0.00,,,0.00,Wunderground v.1.15,2013-04-06 01:53:00,
2013-04-05 21:56:00,41.9,23.6,29.87,ESE,107,7.0,17.0,48,0.00,,,0.00,Wunderground v.1.15,2013-04-06 01:56:00,
2013-04-05 21:58:00,41.8,23.5,29.87,NNW,339,6.0,17.0,48,0.00,,,0.00,Wunderground v.1.15,2013-04-06 01:58:00,
2013-04-05 21:59:00,41.8,24.0,29.87,NE,38,6.0,17.0,49,0.00,,,0.00,Wunderground v.1.15,2013-04-06 01:59:00,
2013-04-05 22:01:00,41.6,23.8,29.87,ENE,60,5.0,8.0,49,0.00,,,0.00,Wunderground v.1.15,2013-04-06 02:01:00,
2013-04-05 22:03:00,41.5,24.2,29.88,North,349,7.0,8.0,50,0.00,,,0.00,Wunderground v.1.15,2013-04-06 02:03:00,
2013-04-05 22:04:00,41.4,24.1,29.88,NNW,345,7.0,8.0,50,0.00,,,0.00,Wunderground v.1.15,2013-04-06 02:04:00,
2013-04-05 22:07:00,41.3,24.5,29.88,NNW,335,10.0,16.0,51,0.00,,,0.00,Wunderground v.1.15,2013-04-06 02:07:00,
2013-04-05 22:08:00,41.3,24.5,29.88,NNE,23,10.0,17.0,51,0.00,,,0.00,Wunderground v.1.15,2013-04-06 02:08:00,
2013-04-05 22:09:00,41.2,24.4,29.88,NNW,340,5.0,17.0,51,0.00,,,0.00,Wunderground v.1.15,2013-04-06 02:09:00,
2013-04-05 22:12:00,41.2,24.4,29.88,North,357,8.0,9.0,51,0.00,,,0.00,Wunderground v.1.15,2013-04-06 02:12:00,
2013-04-05 22:13:00,41.1,24.3,29.88,NNE,29,10.0,12.0,51,0.00,,,0.00,Wunderground v.1.15,2013-04-06 02:13:00,
2013-04-05 22:14:00,41.1,24.8,29.88,NE,41,3.0,12.0,52,0.00,,,0.00,Wunderground v.1.15,2013-04-06 02:14:00,
2013-04-05 22:18:00,40.9,24.6,29.88,NNW,342,7.0,12.0,52,0.00,,,0.00,Wunderground v.1.15,2013-04-06 02:18:00,
2013-04-05 22:19:00,40.9,24.6,29.88,WNW,293,3.0,12.0,52,0.00,,,0.00,Wunderground v.1.15,2013-04-06 02:19:00,
2013-04-05 22:20:00,40.8,24.5,29.88,NNE,32,6.0,7.0,52,0.00,,,0.00,Wunderground v.1.15,2013-04-06 02:20:00,
2013-04-05 22:23:00,40.8,25.0,29.88,North,1,5.0,14.0,53,0.00,,,0.00,Wunderground v.1.15,2013-04-06 02:23:00,
2013-04-05 22:24:00,40.7,24.9,29.88,North,356,15.0,15.0,53,0.00,,,0.00,Wunderground v.1.15,2013-04-06 02:24:00,
2013-04-05 22:25:00,40.7,24.9,29.88,NNE,18,10.0,15.0,53,0.00,,,0.00,Wunderground v.1.15,2013-04-06 02:25:00,
2013-04-05 22:28:00,40.7,24.9,29.88,NNW,332,14.0,18.0,53,0.00,,,0.00,Wunderground v.1.15,2013-04-06 02:28:00,
2013-04-05 22:29:00,40.7,24.9,29.88,NNW,333,7.0,18.0,53,0.00,,,0.00,Wunderground v.1.15,2013-04-06 02:29:00,
2013-04-05 22:30:00,40.6,24.8,29.89,NW,326,4.0,9.0,53,0.00,,,0.00,Wunderground v.1.15,2013-04-06 02:30:00,
2013-04-05 22:33:00,40.6,24.8,29.89,ENE,77,10.0,14.0,53,0.00,,,0.00,Wunderground v.1.15,2013-04-06 02:33:00,
2013-04-05 22:34:00,40.5,24.7,29.88,WNW,295,4.0,20.0,53,0.00,,,0.00,Wunderground v.1.15,2013-04-06 02:34:00,
2013-04-05 22:35:00,40.5,24.7,29.89,NNW,333,14.0,20.0,53,0.00,,,0.00,Wunderground v.1.15,2013-04-06 02:35:00,
2013-04-05 22:38:00,40.4,24.6,29.89,NNE,25,5.0,20.0,53,0.00,,,0.00,Wunderground v.1.15,2013-04-06 02:38:00,
2013-04-05 22:40:00,40.3,24.5,29.89,North,4,7.0,8.0,53,0.00,,,0.00,Wunderground v.1.15,2013-04-06 02:40:00,
2013-04-05 22:41:00,40.2,24.4,29.89,NNW,347,1.0,8.0,53,0.00,,,0.00,Wunderground v.1.15,2013-04-06 02:41:00,
2013-04-05 22:44:00,40.1,24.8,29.89,NE,44,3.0,13.0,54,0.00,,,0.00,Wunderground v.1.15,2013-04-06 02:44:00,
2013-04-05 22:45:00,40.0,24.7,29.89,WNW,301,4.0,13.0,54,0.00,,,0.00,Wunderground v.1.15,2013-04-06 02:45:00,
2013-04-05 22:46:00,40.0,24.7,29.89,NNE,12,7.0,13.0,54,0.00,,,0.00,Wunderground v.1.15,2013-04-06 02:46:00,
2013-04-05 22:50:00,39.7,24.4,29.90,North,349,3.0,6.0,54,0.00,,,0.00,Wunderground v.1.15,2013-04-06 02:50:00,
2013-04-05 22:51:00,39.7,24.4,29.90,NE,47,4.0,6.0,54,0.00,,,0.00,Wunderground v.1.15,2013-04-06 02:51:00,
2013-04-05 22:52:00,39.6,24.3,29.90,ENE,63,2.0,6.0,54,0.00,,,0.00,Wunderground v.1.15,2013-04-06 02:52:00,
2013-04-05 22:55:00,39.4,24.6,29.90,NNW,328,2.0,10.0,55,0.00,,,0.00,Wunderground v.1.15,2013-04-06 02:55:00,
2013-04-05 22:56:00,39.4,24.6,29.90,NNW,342,2.0,10.0,55,0.00,,,0.00,Wunderground v.1.15,2013-04-06 02:56:00,
2013-04-05 22:57:00,39.3,24.5,29.90,NNW,345,6.0,10.0,55,0.00,,,0.00,Wunderground v.1.15,2013-04-06 02:57:00,
2013-04-05 23:00:00,39.2,24.4,29.90,North,6,7.0,12.0,55,0.00,,,0.00,Wunderground v.1.15,2013-04-06 03:00:00,
2013-04-05 23:01:00,39.2,24.4,29.90,NNW,348,5.0,12.0,55,0.00,,,0.00,Wunderground v.1.15,2013-04-06 03:01:00,
2013-04-05 23:02:00,39.2,24.4,29.90,East,96,5.0,12.0,55,0.00,,,0.00,Wunderground v.1.15,2013-04-06 03:02:00,
2013-04-05 23:06:00,39.2,24.8,29.90,NE,41,3.0,12.0,56,0.00,,,0.00,Wunderground v.1.15,2013-04-06 03:06:00,
2013-04-05 23:07:00,39.1,24.7,29.90,NNW,340,3.0,12.0,56,0.00,,,0.00,Wunderground v.1.15,2013-04-06 03:07:00,
2013-04-05 23:08:00,39.1,24.7,29.90,NNE,16,3.0,12.0,56,0.00,,,0.00,Wunderground v.1.15,2013-04-06 03:08:00,
2013-04-05 23:12:00,39.1,24.7,29.91,North,1,11.0,11.0,56,0.00,,,0.00,Wunderground v.1.15,2013-04-06 03:12:00,
2013-04-05 23:13:00,39.0,24.6,29.91,NW,322,7.0,11.0,56,0.00,,,0.00,Wunderground v.1.15,2013-04-06 03:13:00,
2013-04-05 23:17:00,38.9,24.9,29.91,North,352,4.0,11.0,57,0.00,,,0.00,Wunderground v.1.15,2013-04-06 03:17:00,
2013-04-05 23:18:00,38.9,24.9,29.91,NNE,18,4.0,11.0,57,0.00,,,0.00,Wunderground v.1.15,2013-04-06 03:18:00,
2013-04-05 23:22:00,38.7,24.8,29.91,NNE,30,2.0,7.0,57,0.00,,,0.00,Wunderground v.1.15,2013-04-06 03:22:00,
2013-04-05 23:23:00,38.6,25.1,29.91,NE,34,4.0,7.0,58,0.00,,,0.00,Wunderground v.1.15,2013-04-06 03:23:00,
2013-04-05 23:24:00,38.6,25.1,29.91,NE,40,1.0,7.0,58,0.00,,,0.00,Wunderground v.1.15,2013-04-06 03:24:00,
2013-04-05 23:27:00,38.4,24.9,29.91,NNW,336,8.0,16.0,58,0.00,,,0.00,Wunderground v.1.15,2013-04-06 03:27:00,
2013-04-05 23:28:00,38.5,25.0,29.91,NNW,347,5.0,16.0,58,0.00,,,0.00,Wunderground v.1.15,2013-04-06 03:28:00,
2013-04-05 23:29:00,38.4,24.9,29.91,NNE,27,5.0,16.0,58,0.00,,,0.00,Wunderground v.1.15,2013-04-06 03:29:00,
2013-04-05 23:33:00,38.3,25.2,29.91,NNW,338,9.0,17.0,59,0.00,,,0.00,Wunderground v.1.15,2013-04-06 03:33:00,
2013-04-05 23:34:00,38.3,25.2,29.91,North,4,7.0,17.0,59,0.00,,,0.00,Wunderground v.1.15,2013-04-06 03:34:00,
2013-04-05 23:38:00,38.3,25.2,29.91,NNE,32,4.0,17.0,59,0.00,,,0.00,Wunderground v.1.15,2013-04-06 03:38:00,
2013-04-05 23:39:00,38.3,25.2,29.91,NNE,27,4.0,17.0,59,0.00,,,0.00,Wunderground v.1.15,2013-04-06 03:39:00,
2013-04-05 23:40:00,38.2,25.1,29.91,NNE,29,4.0,17.0,59,0.00,,,0.00,Wunderground v.1.15,2013-04-06 03:40:00,
2013-04-05 23:44:00,38.2,25.1,29.91,NW,311,6.0,17.0,59,0.00,,,0.00,Wunderground v.1.15,2013-04-06 03:44:00,
2013-04-05 23:45:00,38.2,25.5,29.91,North,358,5.0,17.0,60,0.00,,,0.00,Wunderground v.1.15,2013-04-06 03:45:00,
2013-04-05 23:49:00,38.0,25.3,29.91,NNW,343,9.0,17.0,60,0.00,,,0.00,Wunderground v.1.15,2013-04-06 03:49:00,
2013-04-05 23:50:00,38.0,25.3,29.91,NW,323,4.0,6.0,60,0.00,,,0.00,Wunderground v.1.15,2013-04-06 03:50:00,
2013-04-05 23:55:00,37.8,25.5,29.92,North,349,6.0,11.0,61,0.00,,,0.00,Wunderground v.1.15,2013-04-06 03:55:00,